Wissant - Hors Challenge

le Trail de la Côte d'Opale à Wissant (31.00 km)

dimanche 10 septembre 2017

Le Classement original se trouve sur : http://www.chronorace.be
 
LE TRAIL DE LA CÔTE D'OPALE - WISSANT
DISTANCE : 31.00 km
dimanche 10 septembre 2017
 
Place Dos NOM Pays Catégorie Pl/cat temps temps/km Vitesse
1 2342 PLAY JEAN-CHRISTOPHE FRA SH 1 2:01:26 03:55 15.32
2 2537 MUSELET NICOLAS FRA SH 2 2:12:50 04:17 14.00
3 2983 DE DINECHIN JEAN MARIE FRA SH 3 2:14:37 04:21 13.82
4 2784 BRAGARD MARTIN BEL SH 4 2:18:01 04:27 13.48
5 3216 GUINAND BRUNO FRA V1 1 2:18:22 04:28 13.44
6 2353 HOLARD MAXIMILIEN FRA SH 5 2:19:04 04:29 13.37
7 2308 THERY DOMENICO FRA SH 6 2:19:18 04:30 13.35
8 2852 JACQZ MARC-ANTOINE FRA SH 7 2:19:27 04:30 13.34
9 2488 RIGAUX FRANÇOIS FRA SH 8 2:19:49 04:31 13.30
10 2437 VAST SEBASTIEN FRA V1 2 2:22:43 04:36 13.03
11 2672 SEGARD AUGUSTIN FRA SH 9 2:23:06 04:37 13.00
12 2081 TRUYAERT EDDY BEL V2 1 2:23:39 04:38 12.95
13 2124 SALINGUE GEOFFREY FRA SH 10 2:24:20 04:39 12.89
14 2764 DUJARDIN JEROME FRA SH 11 2:24:34 04:40 12.87
15 3237 LEPOUTRE BERTRAND FRA V2 2 2:26:41 04:44 12.68
16 2429 BARROIS ALEXANDRE FRA SH 12 2:27:09 04:45 12.64
17 2403 GALLOIS FRANCOIS FRA SH 13 2:28:04 04:47 12.56
18 3378 SOARES ORLANDO FRA V1 3 2:28:48 04:48 12.50
19 3014 GOUEREC JULIEN FRA SH 14 2:28:49 04:48 12.50
20 3363 DELECROIX LOIC FRA V1 4 2:28:50 04:48 12.50
21 3308 BAILLY NICOLAS FRA V1 5 2:29:09 04:49 12.47
22 2933 GIRARD CHRISTOPHE FRA V1 6 2:30:19 04:51 12.37
23 3350 THERY LAURENT FRA V1 7 2:30:26 04:51 12.36
24 2484 DELHAYE LAURENT FRA V1 8 2:30:27 04:51 12.36
25 3259 RUDANT JEAN-BAPTISTE FRA SH 15 2:30:32 04:51 12.36
26 2957 DUHAMEL SANDRINE FRA A1 1 2:30:36 04:51 12.35
27 3062 RECLUS PASCAL FRA V2 3 2:30:42 04:52 12.34
28 2876 DEWAILLY VICTOR FRA SH 16 2:31:54 04:54 12.24
29 2195 SOLER DANIEL FRA V2 4 2:32:07 04:54 12.23
30 2708 STERCKEMAN BRUNO FRA V1 9 2:32:18 04:55 12.21
31 3476 HOUZET JEAN BABTISTE FRA V1 10 2:32:28 04:55 12.20
32 3339 MARTIN FRANÇOIS FRA V1 11 2:32:50 04:56 12.17
33 2863 LECLERCQ BENOIT BEL V1 12 2:33:03 04:56 12.15
34 2152 GRUSON CHRISTOPHE FRA SH 17 2:33:22 04:57 12.13
35 3262 WATRELOT SÉBASTIEN FRA V1 13 2:33:30 04:57 12.12
36 2485 WIBAILLE OLIVIER FRA V1 14 2:33:42 04:57 12.10
37 3055 GOULOIS PIERRE DAMIEN FRA SH 18 2:33:47 04:58 12.09
38 3290 VASSAL NICOLAS FRA SH 19 2:34:33 04:59 12.03
39 3467 CARDINAEL SOPHIE FRA SD 1 2:34:38 04:59 12.03
40 2433 BOITEUX GUILLAUME FRA SH 20 2:34:54 05:00 12.01
41 2858 CHEVALIER LAURENT FRA V2 5 2:35:00 05:00 12.00
42 2991 HER JONATHAN FRA SH 21 2:35:26 05:01 11.97
43 2897 LEROY CHRISTOPHE FRA SH 22 2:35:33 05:01 11.96
44 2219 DEQUIDT CELINE FRA SD 2 2:35:37 05:01 11.95
45 3430 COURBOT VINCENT FRA SH 23 2:36:05 05:02 11.92
46 3174 GHESTEM FRANÇOIS FRA V2 6 2:36:25 05:03 11.89
47 2122 COUSIN ANTOINE FRA SH 24 2:36:27 05:03 11.89
48 2745 SAINT-CAST VICTOR FRA SH 25 2:36:30 05:03 11.88
49 2193 LAURENT PIERRE FRA SH 26 2:36:44 05:03 11.87
50 3402 MANEAU CYRILLE FRA V1 15 2:37:12 05:04 11.83
51 3495 MUSELET SEBASTIEN FRA SH 27 2:38:01 05:06 11.77
52 2272 LEMAITRE LAURENT FRA V1 16 2:38:07 05:06 11.76
53 3468 CARDINAEL JEAN LUC FRA V2 7 2:38:18 05:06 11.75
54 3197 BOVEROUX MAXENCE FRA SH 28 2:38:28 05:07 11.74
55 3196 GHEZA JÉRÔME FRA SH 29 2:38:28 05:07 11.74
56 2551 PAULET LUDOVIC FRA SH 30 2:38:44 05:07 11.72
57 3004 MOUSSEBOIS ERIC BEL SH 31 2:38:55 05:08 11.70
58 3398 HENRY FRÉDÉRIC FRA V2 8 2:39:00 05:08 11.70
59 2587 BUYS CAROLINE BEL A1 2 2:39:04 05:08 11.69
60 2261 BOURGAIN GUILLAUME FRA V1 17 2:39:10 05:08 11.69
61 2830 LEMINEUR QUENTIN BEL SH 32 2:39:34 05:09 11.66
62 2562 RABIER ANTOINE FRA V2 9 2:40:36 05:11 11.58
63 2280 LEFEBVRE VINCENT FRA SH 33 2:40:55 05:11 11.56
64 2208 CORNU ANTHONY FRA V1 18 2:41:25 05:12 11.52
65 2967 LEFEBVRE OLIVIER FRA SH 34 2:41:28 05:13 11.52
66 2388 DAMERY MATTHIEU FRA SH 35 2:41:38 05:13 11.51
67 2705 VANDERPERREN CÉDRIC BEL V1 19 2:42:02 05:14 11.48
68 3453 GARBONI CALIN FRA SH 36 2:42:06 05:14 11.47
69 3193 ETIENNE JEROME FRA SH 37 2:42:13 05:14 11.47
70 3307 DELMARRE GUY FRA V1 20 2:42:15 05:14 11.46
71 2146 DA SILVA JOSEPH FRA V1 21 2:42:28 05:14 11.45
72 3210 VANEENOO CHARLES FRA SH 38 2:42:45 05:15 11.43
73 2079 FOSSARD ARNAUD FRA SH 39 2:42:46 05:15 11.43
74 2680 LHEUREUX BENJAMIN FRA SH 40 2:43:11 05:16 11.40
75 2621 LAMBET STÉPHANE FRA V1 22 2:43:20 05:16 11.39
76 3274 DEGARDIN DAVID FRA SH 41 2:43:25 05:16 11.38
77 2217 PECCEU JEAN-BAPTISTE FRA SH 42 2:43:29 05:16 11.38
78 2820 DI STAZIO DONATO BEL V2 10 2:43:50 05:17 11.35
79 2267 DECOOPMAN REMY FRA SH 43 2:43:51 05:17 11.35
80 2518 HEULS SEBASTIEN FRA V1 23 2:43:58 05:17 11.34
81 3484 BAILLEUX SAMUEL FRA SH 44 2:43:59 05:17 11.34
82 2123 LARDAN THOMAS FRA SH 45 2:43:59 05:17 11.34
83 2311 BEKAERT DOMINIEK BEL A1 3 2:44:00 05:17 11.34
84 2754 DUQUENOŸ TIMOTHÉE FRA SH 46 2:44:00 05:17 11.34
85 2940 MARTEL MATHILDE FRA SD 3 2:44:01 05:17 11.34
86 2225 BEHAGUE OLIVIER FRA V1 24 2:44:05 05:18 11.34
87 3359 GUENOUX FRANÇOIS FRA SH 47 2:44:14 05:18 11.33
88 2343 VULSTEKE KRISTOF BEL V1 25 2:44:21 05:18 11.32
89 2041 DANVERS BENOIT FRA V1 26 2:44:23 05:18 11.32
90 2545 CROCCEL ZOÉ FRA SD 4 2:44:32 05:18 11.30
91 3018 FAUCHILLE SEBASTIEN FRA V1 27 2:44:43 05:19 11.29
92 3240 PASCAUD GRÉGORY FRA SH 48 2:44:49 05:19 11.29
93 2169 TABOURET MARC FRA V2 11 2:44:53 05:19 11.28
94 2801 BRAY ALEXANDRE FRA SH 49 2:44:54 05:19 11.28
95 2476 BLIN FRÉDÉRIC FRA V1 28 2:45:11 05:20 11.26
96 2747 LANOY ADRIEN FRA SH 50 2:45:16 05:20 11.25
97 2984 THIEBAUT FRANTZ FRA SH 51 2:45:19 05:20 11.25
98 2857 POULAIN GUY FRA V2 12 2:45:35 05:20 11.23
99 3230 DEMARE JOHNNY FRA V1 29 2:45:41 05:21 11.23
100 2569 LE TRIONNAIRE NICOLAS FRA SH 52 2:45:57 05:21 11.21
101 3065 ZANGARI NICOLAS FRA SH 53 2:46:09 05:22 11.19
102 2188 GENSSE JEREMY FRA SH 54 2:46:10 05:22 11.19
103 3328 DEROOZ GRÉGORY FRA SH 55 2:46:11 05:22 11.19
104 2251 VASSEUR DIDIER FRA V2 13 2:46:11 05:22 11.19
105 2956 FOURNY JÉRÔME FRA V1 30 2:46:14 05:22 11.19
106 3418 MEUNIER WILFRIED FRA SH 56 2:46:37 05:22 11.16
107 3192 FRICK JEAN-FRANÇOIS FRA SH 57 2:46:44 05:23 11.16
108 2462 VALADE CLAIRE   SD 5 2:46:45 05:23 11.15
109 2662 CORDIER SAMUEL FRA SH 58 2:47:05 05:23 11.13
110 3250 VERNALDE JULIEN FRA SH 59 2:47:17 05:24 11.12
111 2997 COCQUET ERIC FRA SH 60 2:47:52 05:25 11.08
112 3341 GIROUD FRANCK FRA V1 31 2:48:47 05:27 11.02
113 2959 DURIEUX KARL FRA V1 32 2:48:48 05:27 11.02
114 2547 HUCHETTE DAMIEN FRA SH 61 2:48:51 05:27 11.02
115 2776 CANTE ANAIS FRA SD 6 2:48:53 05:27 11.01
116 3180 MINECCI SEBASTIEN FRA V1 33 2:48:56 05:27 11.01
117 3040 RAYMOND FREDERIK FRA V1 34 2:49:17 05:28 10.99
118 3015 GILLERON GUILLAUME FRA SH 62 2:49:33 05:28 10.97
119 3406 QUITTELIER JASON BEL SH 63 2:49:38 05:28 10.96
120 2409 NICOLAS CÉDRIC FRA V1 35 2:49:44 05:29 10.96
121 3200 ARNOULT FRANCK FRA V1 36 2:49:45 05:29 10.96
122 2855 INSTALLÉ CÉDRIC BEL V1 37 2:49:51 05:29 10.95
123 3409 BRANLE DAVID BEL V1 38 2:49:51 05:29 10.95
124 3214 DELELIS PHILIPPE FRA V1 39 2:49:57 05:29 10.94
125 2461 MGHARI AHMAD FRA SH 64 2:50:03 05:29 10.94
126 2658 VAN STAEN DAVID FRA V1 40 2:50:04 05:29 10.94
127 2711 COUTURIER EDOUARD FRA SH 65 2:50:07 05:29 10.93
128 2520 MERCHIE DOMINIQUE FRA V2 14 2:50:08 05:29 10.93
129 2199 OLIVIER SÉBASTIEN FRA V1 41 2:50:12 05:29 10.93
130 2634 BOGAERT CHRISTOPHE FRA V1 42 2:50:16 05:30 10.92
131 3287 VELGHE JULIEN BEL SH 66 2:50:21 05:30 10.92
132 2511 NICOLINI MATTHIEU FRA SH 67 2:50:36 05:30 10.90
133 3286 RENARD GUILLAUME BEL SH 68 2:50:40 05:30 10.90
134 2274 LEYDIER ANTOINE FRA SH 69 2:50:42 05:30 10.90
135 2576 LENGLET NICOLAS FRA V1 43 2:50:42 05:30 10.90
136 2760 DE MAILLARD EMMANUEL FRA SH 70 2:50:50 05:31 10.89
137 3405 HEUDE MICKAEL FRA V1 44 2:50:56 05:31 10.88
138 2768 DENOYELLE ALEC FRA V1 45 2:50:58 05:31 10.88
139 3401 VALLERAND PASCAL FRA V2 15 2:51:26 05:32 10.85
140 2802 KOUKLEVSKY ANNE FRA A1 4 2:51:32 05:32 10.84
141 2475 BRINCOURT CHRISTOPHE FRA V2 16 2:51:36 05:32 10.84
142 2811 DELERUYELLE ANNE FRA A1 5 2:51:37 05:32 10.84
143 2471 LABITTE GREGORY FRA V1 46 2:51:41 05:32 10.83
144 2088 SERMOT NICOLAS FRA SH 71 2:51:50 05:33 10.82
145 2834 QUESTEL NATHALIE FRA A1 6 2:52:02 05:33 10.81
146 2021 PORET GREGORY FRA V1 47 2:52:08 05:33 10.81
147 2779 LACROIX MARIE BEL SD 7 2:52:08 05:33 10.81
148 2918 BALESTAN MAXIME FRA SH 72 2:52:13 05:33 10.80
149 2601 HEURTEAUX FREDERIC FRA V1 48 2:52:25 05:34 10.79
150 2716 DEBIOLLE VINCENT BEL V2 17 2:52:26 05:34 10.79
151 3212 FEKKAR LAURENT FRA V1 49 2:52:31 05:34 10.78
152 2536 SAILLY CHRISTOPHE FRA V2 18 2:52:35 05:34 10.78
153 2990 LAVIGNE JEAN-CHRISTOPHE FRA V1 50 2:53:02 05:35 10.75
154 2968 KNAPEN LAURENT BEL V3 1 2:53:05 05:35 10.75
155 2641 IDIART JEAN LUC FRA V1 51 2:53:18 05:35 10.73
156 2595 FALLET GUIOL DENIS FRA V1 52 2:53:38 05:36 10.71
157 2327 LEMAIRE AMAURY FRA SH 73 2:53:49 05:36 10.70
158 2378 VANDYCKE DAVID FRA SH 74 2:53:59 05:37 10.69
159 2744 PRUNGET FRANCK FRA V1 53 2:54:09 05:37 10.68
160 2721 NIQUE JULIEN FRA SH 75 2:54:11 05:37 10.68
161 2364 DURITA ZOLIKA HRV V2 19 2:54:13 05:37 10.68
162 2592 BOURREAU EMMANUEL FRA V1 54 2:54:19 05:37 10.67
163 2539 PILETTE BENOÎT BEL V1 55 2:54:23 05:38 10.67
164 3203 CANDELIER BORIS FRA SH 76 2:54:31 05:38 10.66
165 2640 CANDELIER KÉVIN FRA SH 77 2:54:31 05:38 10.66
166 2458 DUCLERCQ OLIVIER FRA SH 78 2:54:38 05:38 10.65
167 2457 POUPART NICOLAS FRA SH 79 2:54:48 05:38 10.64
168 2204 NAUDIN CLAUDE FRA V3 2 2:54:54 05:39 10.63
169 2930 BIGEAY GEOFFREY FRA SH 80 2:54:57 05:39 10.63
170 2115 GHIGNY THOMAS BEL SH 81 2:55:00 05:39 10.63
171 2153 DELAHAUT DELPHINE BEL SD 8 2:55:02 05:39 10.63
172 2402 HUTIN LUDOVIC FRA SH 82 2:55:12 05:39 10.62
173 2296 GUINAMARD ANTOINE FRA SH 83 2:55:13 05:39 10.62
174 2042 DEPRYCKER KRIS BEL V1 56 2:55:19 05:39 10.61
175 2650 FRANCOIS LOIS FRA SH 84 2:55:32 05:40 10.60
176 2710 MASSON STÉPHANE FRA V1 57 2:55:42 05:40 10.59
177 2228 LECLERCQ FRANCK FRA V2 20 2:55:44 05:40 10.58
178 3068 POISSONNIER VINCENT FRA SH 85 2:55:46 05:40 10.58
179 3066 SZYMANSKI ALBAN FRA SH 86 2:55:46 05:40 10.58
180 2368 FACHE LIONEL FRA SH 87 2:55:48 05:40 10.58
181 2446 FACQ ALAIN FRA V1 58 2:55:49 05:40 10.58
182 2477 SCHOCH JEAN THIERRY FRA V1 59 2:55:49 05:40 10.58
183 2642 ROGER SYLVAIN FRA SH 88 2:55:51 05:40 10.58
184 2618 MONNIER LAURENT FRA V2 21 2:55:58 05:41 10.57
185 3351 CARBALLO MANUEL FRA V2 22 2:56:01 05:41 10.57
186 3016 DUHAMEL GREGOIRE FRA SH 89 2:56:12 05:41 10.56
187 2464 LAMIRAND ETIENNE   SH 90 2:56:19 05:41 10.55
188 2455 DHALLEINE JONATHAN FRA SH 91 2:56:29 05:42 10.54
189 3445 VERNE LUCIE FRA SD 9 2:56:31 05:42 10.54
190 2890 COURTI DANIEL FRA V2 23 2:56:45 05:42 10.52
191 3370 DEBOUT NICOLAS FRA V1 60 2:56:48 05:42 10.52
192 2512 GUILBERT ANTOINE FRA SH 92 2:56:57 05:42 10.51
193 2290 OLIVIER DEMOULIN BEL V1 61 2:57:03 05:43 10.51
194 2928 FALANDRY LAURE FRA SD 10 2:57:04 05:43 10.50
195 2273 LAMONT MICHAEL FRA V1 62 2:57:14 05:43 10.49
196 2365 HUART JULIEN FRA V1 63 2:57:20 05:43 10.49
197 3400 HENNEGRAEVE NICOLAS FRA V1 64 2:57:22 05:43 10.49
198 3008 BOURGEOT CHARLES-OLIVIER FRA SH 93 2:57:23 05:43 10.49
199 3270 CONSTANT ARNAUD FRA V1 65 2:57:34 05:44 10.47
200 2935 BACRO ANTOINE FRA SH 94 2:57:34 05:44 10.47
201 2003 BEGUE THIERRY   V2 24 2:57:36 05:44 10.47
202 2823 GAMBLIN VIRGINIE FRA SD 11 2:57:36 05:44 10.47
203 2362 DAMBOIS THIERRY BEL V1 66 2:57:37 05:44 10.47
204 2590 HERMANT OLIVIER FRA V1 67 2:57:43 05:44 10.47
205 2943 HANS VINCENT FRA V1 68 2:57:50 05:44 10.46
206 2835 GAT HÉLÈNE FRA SD 12 2:57:52 05:44 10.46
207 2737 VANTORRE SÉBASTIEN BEL SH 95 2:57:54 05:44 10.46
208 3067 ARGENTIN BENOIT FRA SH 96 2:57:56 05:44 10.45
209 3064 VLAEMYNCK RÉMI FRA SH 97 2:57:56 05:44 10.45
210 3264 MARIDET DOLÈNE FRA SD 13 2:57:59 05:44 10.45
211 2214 LESIEUR BENJAMIN FRA V1 69 2:58:06 05:45 10.44
212 3424 DUQUENNOY JEAN CHRISTOPHE FRA V1 70 2:58:06 05:45 10.44
213 2781 DURIEZ OLIVIER FRA V1 71 2:58:21 05:45 10.43
214 2656 MAQUINGHEN FRANCK FRA SH 98 2:58:31 05:46 10.42
215 2543 SCHEERS FRÉDÉRIC FRA V2 25 2:58:32 05:46 10.42
216 2444 BRABANT JULIEN FRA SH 99 2:58:42 05:46 10.41
217 2443 BRABANT OLIVIER FRA SH 100 2:58:53 05:46 10.40
218 2016 CHRISTIAN DUBOIS FRA SH 101 2:58:55 05:46 10.40
219 3033 LIPPOLIS DOMINIQUE BEL V1 72 2:58:59 05:46 10.39
220 2040 DANVERS CORINE FRA A1 7 2:59:11 05:47 10.38
221 2494 BOURLES LAURENT FRA V1 73 2:59:12 05:47 10.38
222 3432 LAURENT CARINE FRA A2 1 2:59:31 05:47 10.36
223 2502 LOUCHART JULIEN FRA SH 102 2:59:34 05:48 10.36
224 3475 LEPENANT JULIEN FRA SH 103 2:59:41 05:48 10.35
225 2762 MARCHAND NICOLAS FRA SH 104 2:59:43 05:48 10.35
226 2938 DUMORTIER CHRISTOPHE FRA V1 74 2:59:48 05:48 10.34
227 2752 BIRON MARCEL BEL V1 75 3:00:03 05:48 10.33
228 2231 DE SMAELE NICOLAS BEL SH 105 3:00:06 05:49 10.33
229 2263 COLLETTE JEAN FRA SH 106 3:00:09 05:49 10.32
230 3310 FRANQUENOUL SYLVAIN FRA SH 107 3:00:09 05:49 10.32
231 3454 HENNEBERT BERTRAND BEL SH 108 3:00:13 05:49 10.32
232 2916 SIGNORET ALBIN FRA V1 76 3:00:16 05:49 10.32
233 2796 BEAL OLIVIER FRA V1 77 3:00:22 05:49 10.31
234 3325 SARTORIUS DAVID FRA V1 78 3:00:28 05:49 10.31
235 2049 MORY CHRISTOPHE FRA V1 79 3:00:28 05:49 10.31
236 3383 COSTEUR GUILLAUME FRA V1 80 3:00:30 05:49 10.30
237 3490 MARTIN DOMINIQUE FRA V1 81 3:00:34 05:49 10.30
238 2200 FUZELLIER KEVIN FRA SH 109 3:00:38 05:50 10.30
239 2334 CAPELLE PIERRE FRA SH 110 3:00:48 05:50 10.29
240 2428 VASSEUR LUDOVIC FRA SH 111 3:00:53 05:50 10.28
241 2430 COLIN KÉVIN FRA SH 112 3:00:53 05:50 10.28
242 2435 STRUNC HERVÉ FRA V1 82 3:00:53 05:50 10.28
243 2246 DELANNOY FRANCOIS FRA SH 113 3:00:54 05:50 10.28
244 2423 HENNERON ERIC FRA V2 26 3:00:59 05:50 10.28
245 2397 SROKOSZEWSKI MICHAEL FRA SH 114 3:01:03 05:50 10.27
246 2961 PREZ BERTRAND FRA SH 115 3:01:05 05:50 10.27
247 2960 VANGAEVEREN THOMAS FRA SH 116 3:01:06 05:51 10.27
248 3459 COOSEMANS ROBIN BEL SH 117 3:01:18 05:51 10.26
249 2606 BALAND JOHAN BEL V1 83 3:01:19 05:51 10.26
250 2523 OLIVIER KEVIN FRA SH 118 3:01:19 05:51 10.26
251 2237 VENERUCCI GIUSEPPE ITA V1 84 3:01:22 05:51 10.26
252 2453 VANHOOVE FRANCK FRA V1 85 3:01:24 05:51 10.25
253 3017 MINET FRANCOIS FRA SH 119 3:01:27 05:51 10.25
254 2087 DECHERF ALEXANDRE FRA SH 120 3:01:36 05:51 10.24
255 2007 HENNEQUIN LUDOVIC   V1 86 3:01:42 05:52 10.24
256 2398 GAUTIER LAURENT FRA V1 87 3:01:47 05:52 10.23
257 2337 MORLIGHEM GREGORY BEL V1 88 3:01:51 05:52 10.23
258 2771 MISSIAEN JEAN-LUC FRA V2 27 3:02:05 05:52 10.22
259 2689 DELECOUR LAURENT FRA SD 14 3:02:12 05:53 10.21
260 2889 VANDERMARLIÈRE GUILLAUME FRA SH 121 3:02:12 05:53 10.21
261 2836 LECLERCQ GAËTAN BEL SH 122 3:02:19 05:53 10.20
262 2655 DARON MICHAËL BEL V1 89 3:02:22 05:53 10.20
263 2648 RENOIRTE CHARLES BEL V1 90 3:02:29 05:53 10.19
264 2481 OSSORO FRANCK FRA V1 91 3:02:35 05:53 10.19
265 2953 MARTIN EDDIE FRA V1 92 3:02:36 05:53 10.19
266 3273 PERDIGEON MAXENCE FRA SH 123 3:02:36 05:53 10.19
267 2654 DOBBELS MORGAN FRA SH 124 3:02:37 05:53 10.19
268 2704 LEFEVRE CELINE FRA A1 8 3:02:51 05:54 10.17
269 2022 VANDAELE TOMMY FRA V1 93 3:03:00 05:54 10.16
270 3497 GAYET STÉPHANE FRA V1 94 3:03:00 05:54 10.16
271 2023 LAGACHE JONATHAN FRA SH 125 3:03:00 05:54 10.16
272 2679 MOTHERON CECILE FRA A2 2 3:03:00 05:54 10.16
273 2579 GIORGI HOUITTE ANNE SOPHIE FRA SD 15 3:03:05 05:54 10.16
274 2884 MOREEL GUILLAUME FRA V1 95 3:03:08 05:54 10.16
275 2482 PERRIN PATRICK FRA V2 28 3:03:25 05:55 10.14
276 2950 RASKINET RENAUD BEL V1 96 3:03:36 05:55 10.13
277 2583 PATRICE READY BEL SH 126 3:03:49 05:56 10.12
278 2377 VANPEENE XAVIER FRA SH 127 3:04:07 05:56 10.10
279 2742 DEVILDER QUENTIN FRA SH 128 3:04:08 05:56 10.10
280 3404 CHEVALIER SANDRINE FRA A1 9 3:04:12 05:57 10.10
281 2183 DE SAINT MARTIN ALAIN BEL SH 129 3:04:25 05:57 10.09
282 2739 WAMBRE FRANCK FRA V1 97 3:04:28 05:57 10.08
283 2727 GAILLET CHRISTOPHE BEL V1 98 3:04:30 05:57 10.08
284 2552 FONTAINE THIERRY BEL V2 29 3:04:30 05:57 10.08
285 2903 PRÉVOST MARIE-CÉCILE BEL SD 16 3:04:31 05:57 10.08
286 3002 DELHAYE BASILE FRA SH 130 3:04:33 05:57 10.08
287 2871 COCQ CHARLES-EDMOND FRA SH 131 3:04:36 05:57 10.08
288 2759 PASQUIER CECILE FRA SD 17 3:04:38 05:57 10.07
289 2389 KNOCKAERT VINCENT FRA SD 18 3:04:46 05:58 10.07
290 2954 VANHAELEN PIERRE BEL SH 132 3:04:52 05:58 10.06
291 2303 HOUDART FRANCK FRA V2 30 3:05:00 05:58 10.05
292 2880 PLANCQ DAVID FRA SH 133 3:05:06 05:58 10.05
293 2827 LOUVET CHRISTOPHE FRA V2 31 3:05:20 05:59 10.04
294 2407 DOURLEN SANDRINE FRA A1 10 3:05:29 05:59 10.03
295 2881 THYRANT SÉBASTIEN FRA V1 99 3:05:35 05:59 10.02
296 3039 VEROUGSTRAETE JEAN-CHRISTOPHE BEL V1 100 3:05:36 05:59 10.02
297 2452 GONTIER JULIEN FRA SH 134 3:05:36 05:59 10.02
298 2474 WILLOT CYRIL FRA SH 135 3:05:38 05:59 10.02
299 2020 DEVILDER MAXIME FRA SH 136 3:05:43 05:59 10.02
300 2222 LEROY ALEXANDRE FRA V1 101 3:05:44 05:59 10.01
301 2544 GALASSO AMADEO FRA V2 32 3:05:45 06:00 10.01
302 2205 HUVENNE KEVIN BEL SH 137 3:05:50 06:00 10.01
303 3438 TASSE PASCAL FRA V1 102 3:06:02 06:00 10.00
304 2496 DELABAERE MARC FRA V3 3 3:06:12 06:00 9.99
305 2465 PHILIPPOT ELIE FRA SH 138 3:06:12 06:00 9.99
306 2472 VANDEN BERGHE ERWAN FRA SH 139 3:06:14 06:00 9.99
307 3332 CANONNE OLIVIER FRA SH 140 3:06:14 06:00 9.99
308 2229 WATTIEZ FRANÇOIS BEL SH 141 3:06:20 06:01 9.98
309 3061 EERTMANS NICOLAS BEL V1 103 3:06:25 06:01 9.98
310 2359 GOETHALS ANTOINE FRA SH 142 3:06:35 06:01 9.97
311 3205 BITOT FREDERIC FRA SH 143 3:06:39 06:01 9.97
312 3206 BECARD EZECHIEL FRA V1 104 3:06:40 06:01 9.96
313 2840 ROCHET BLAISE FRA V1 105 3:06:40 06:01 9.96
314 2213 DEMEYERE LAURENCE FRA SD 19 3:06:41 06:01 9.96
315 2212 RASSON OLIVIER FRA SH 144 3:06:41 06:01 9.96
316 3029 BOULANGER JULIEN FRA V1 106 3:06:44 06:01 9.96
317 2659 WAILLY GUILLAUME FRA SH 145 3:06:59 06:02 9.95
318 3253 TIEGHEM AURÉLIEN FRA SH 146 3:07:05 06:02 9.94
319 2558 DUBOIS LUDOVIC FRA V1 107 3:07:07 06:02 9.94
320 2646 PIGEOLET FRANCOIS BEL V1 108 3:07:10 06:02 9.94
321 2028 SEINE CEDRIC FRA V1 109 3:07:18 06:03 9.93
322 2483 ROHART SYLVAIN FRA SH 147 3:07:27 06:03 9.92
323 2657 MOÏSE DENIS BEL SH 148 3:07:28 06:03 9.92
324 2504 SMAGGHE MURIEL FRA A2 3 3:07:34 06:03 9.92
325 2293 LEFEBVRE LUDOVIC FRA SH 149 3:07:39 06:03 9.91
326 2795 DUQUESNE GUILLAUME FRA V1 110 3:07:40 06:03 9.91
327 3460 RICHARD DIDIER FRA V2 33 3:07:41 06:03 9.91
328 3058 BOUILLON SYLVAIN FRA V2 34 3:07:41 06:03 9.91
329 2948 LEMAIRE CYRILLE FRA V1 111 3:07:43 06:03 9.91
330 2631 MERLEN ALEXANDRE FRA SH 150 3:07:48 06:03 9.90
331 2338 WATINE ANTONY FRA V1 112 3:07:50 06:04 9.90
332 3050 DUPRET DAVID FRA V1 113 3:07:52 06:04 9.90
333 2927 MACTELLINCK ANDRÉ BEL V2 35 3:07:56 06:04 9.90
334 2865 PLATTEEUW PIERRE FRA SH 151 3:07:58 06:04 9.90
335 2387 TOURTEAU EMILIE FRA SD 20 3:08:00 06:04 9.89
336 2693 ABOUKAIS WISSAM FRA SH 152 3:08:00 06:04 9.89
337 2809 MOREAU SEBASTIEN FRA SH 153 3:08:00 06:04 9.89
338 3020 COUROUBLE GUY-BERNARD FRA V1 114 3:08:04 06:04 9.89
339 2279 MAQUIGNON ANTOINE FRA SH 154 3:08:05 06:04 9.89
340 3358 GUENOUX NICOLAS FRA SH 155 3:08:08 06:04 9.89
341 2908 RICHART PIERRE FRA V2 36 3:08:14 06:04 9.88
342 2434 REPLUMAZ AURÉLIEN FRA SH 156 3:08:22 06:05 9.87
343 3461 AURIOL CHRISTOPHE FRA V1 115 3:08:24 06:05 9.87
344 3462 RICHARD VALERIE FRA A2 4 3:08:24 06:05 9.87
345 3426 LEFEVRE KEVIN FRA SH 157 3:08:26 06:05 9.87
346 2833 BEN CYRIL FRA V1 116 3:08:27 06:05 9.87
347 2531 GALLET AURELIEN FRA SH 158 3:08:31 06:05 9.87
348 3003 MARTEL SAMUEL FRA V1 117 3:08:33 06:05 9.86
349 2283 COCILOVO PERRINE FRA SD 21 3:08:43 06:05 9.86
350 3268 CAMPAGNE GUILLAUME FRA SH 159 3:08:44 06:05 9.86
351 2691 BOULANGER YVES FRA V1 118 3:08:46 06:05 9.85
352 2603 ZULIANI ROMY FRA SD 22 3:08:50 06:05 9.85
353 2685 MEVAERE REMI FRA SH 160 3:08:50 06:05 9.85
354 3396 JOURET JULIEN BEL SH 161 3:08:57 06:06 9.84
355 3272 SUTEAU JÉRÉMIE FRA SH 162 3:08:58 06:06 9.84
356 2008 BRACQBIEN MAXIME   SH 163 3:09:00 06:06 9.84
357 2611 MARTINOT SEBASTIEN FRA SH 164 3:09:09 06:06 9.83
358 2904 DELVIGNE JULIEN BEL SH 165 3:09:18 06:06 9.83
359 2734 DUCROCQ STEPHANE FRA V1 119 3:09:23 06:07 9.82
360 3333 HORST ARNE NLD V1 120 3:09:23 06:07 9.82
361 2478 BECQUART SIMON FRA SH 166 3:09:24 06:07 9.82
362 3221 BECQUART ANTOINE FRA SH 167 3:09:26 06:07 9.82
363 3455 DELVIGNE MARC FRA V2 37 3:09:26 06:07 9.82
364 3063 SELLIEZ MATTHIEU FRA SH 168 3:09:34 06:07 9.81
365 2529 THESSIEU CHRISTOPHE FRA V2 38 3:09:36 06:07 9.81
366 2515 CHARRAS GUILLAUME FRA SH 169 3:09:36 06:07 9.81
367 3376 DUFOUR BRUNO FRA SH 170 3:09:40 06:07 9.81
368 2878 LAMBERT FREDERIC FRA V1 121 3:09:42 06:07 9.80
369 2487 DURIEZ GRÉGOIRE FRA SH 171 3:09:49 06:07 9.80
370 2513 BILLARD ANNE-SOPHIE FRA SD 23 3:09:50 06:07 9.80
371 3220 POLEUR FRANCOIS BEL SH 172 3:09:58 06:08 9.79
372 2839 OLLIVIER SÉBASTIEN FRA SH 173 3:10:00 06:08 9.79
373 2507 RICHARD OLIVIER FRA SH 174 3:10:02 06:08 9.79
374 3275 HUYGHE TIMOTHÉE FRA SH 175 3:10:06 06:08 9.78
375 3231 BILLARD VINCENT FRA V1 122 3:10:07 06:08 9.78
376 3472 PAQUENTIN JULIEN FRA SH 176 3:10:15 06:08 9.78
377 2849 GUERIN PIERRE FRA SH 177 3:10:22 06:08 9.77
378 2738 DESJONQUÈRES HUGUES FRA SH 178 3:10:41 06:09 9.75
379 3051 LATTAIGNANT GRÉGORY FRA V1 123 3:10:48 06:09 9.75
380 2899 ROBERT STÉPHANE FRA V1 124 3:10:49 06:09 9.75
381 2774 POWALA STEPHANE FRA V1 125 3:10:55 06:10 9.74
382 2789 KAMINSKI HERVE FRA V1 126 3:10:55 06:10 9.74
383 2845 TIMMERMAN SÉBASTIEN BEL SH 179 3:10:57 06:10 9.74
384 2245 DELSERT EMMANUEL FRA V1 127 3:10:57 06:10 9.74
385 2684 DELAFOYE PASCAL FRA V2 39 3:10:58 06:10 9.74
386 3034 GOURDIN FREDERIC FRA V1 128 3:10:58 06:10 9.74
387 3352 DESOBRY STEPHANE BEL V3 4 3:11:00 06:10 9.74
388 3452 GASSER PAUL FRA V2 40 3:11:02 06:10 9.74
389 2793 MILLET VIRGINIE FRA A1 11 3:11:03 06:10 9.74
390 2588 STALMANS PIERRE BEL V1 129 3:11:10 06:10 9.73
391 2467 AVOT JEAN-BAPTISTE FRA SH 180 3:11:18 06:10 9.72
392 2449 LE MAIGNENT ANTOINE FRA SH 181 3:11:22 06:10 9.72
393 3257 MAHIEUX MARC FRA V1 130 3:11:23 06:10 9.72
394 2994 MAGNE JEAN-FRANCOIS FRA V1 131 3:11:25 06:10 9.72
395 2285 DELTOUR VINCENT FRA V1 132 3:11:29 06:11 9.71
396 2027 LACROIX JEROME FRA V1 133 3:11:30 06:11 9.71
397 2767 HAUGLUSTAINE PIERRE BEL V1 134 3:11:34 06:11 9.71
398 2307 SZCZEPANIAK PASCALE FRA V2 41 3:11:36 06:11 9.71
399 2024 DELATTAIGNANT LUDOVIC FRA V1 135 3:11:38 06:11 9.71
400 2248 MICHAUD JULIEN FRA SH 182 3:11:39 06:11 9.71
401 2309 PEQUIGNOT THOMAS FRA SH 183 3:11:47 06:11 9.70
402 3337 WIART SYLVAIN FRA V1 136 3:11:48 06:11 9.70
403 3415 LHOTE VINCENT FRA V1 137 3:11:50 06:11 9.70
404 2175 BLAS ANTOINE FRA SH 184 3:11:51 06:11 9.70
405 2778 NICASSIO VANESSA BEL SD 24 3:11:55 06:11 9.69
406 2381 VERDIER CHRISTOPHE FRA V1 138 3:12:00 06:12 9.69
407 2712 CLARYS LUDOVIC FRA SH 185 3:12:04 06:12 9.68
408 2160 VENDAMME GREGORY FRA V1 139 3:12:20 06:12 9.67
409 2578 GIORGI JEAN-CHARLES FRA V1 140 3:12:21 06:12 9.67
410 2577 PITAVAL GAËTAN FRA V1 141 3:12:21 06:12 9.67
411 2182 SERRA SEBASTIEN FRA V1 142 3:12:28 06:13 9.66
412 2473 SABBADINI GUILLAUME FRA SH 186 3:12:29 06:13 9.66
413 3440 DUCATTEAU DAMIEN FRA V1 143 3:12:35 06:13 9.66
414 3054 BOUIN BERNARD FRA V1 144 3:12:37 06:13 9.66
415 2405 COULTHARD KARINE FRA A1 12 3:12:39 06:13 9.65
416 2909 ROCHETEAU FABRICE FRA V2 42 3:12:49 06:13 9.65
417 3437 DUBAIL FLORENTIN FRA SH 187 3:12:52 06:13 9.64
418 2910 DELANGHE PATRICK FRA V3 5 3:12:57 06:13 9.64
419 3030 BRUCALE ARMEL FRA V1 145 3:13:08 06:14 9.63
420 2637 DEPERNE CHRISTOF FRA V1 146 3:13:14 06:14 9.63
421 3393 ALLARD MATTHIEU FRA SH 188 3:13:20 06:14 9.62
422 3202 VERITE CEDRIC FRA SH 189 3:13:27 06:14 9.61
423 2165 GLASSON ANTHONY FRA SH 190 3:13:29 06:14 9.61
424 2383 AUGUET JULIEN FRA SH 191 3:13:35 06:15 9.61
425 2417 MERY DE MONTIGNY NICOLAS FRA SH 192 3:13:35 06:15 9.61
426 3447 THERY JULIEN FRA SH 193 3:13:37 06:15 9.61
427 2831 HUGUENIN JEAN RÉMI FRA V1 147 3:13:40 06:15 9.60
428 3493 KINZIGER ARNAUD FRA SH 194 3:13:40 06:15 9.60
429 2986 DELPIERRE FREDERIC FRA SH 195 3:13:41 06:15 9.60
430 3397 DELANGHE CATHY FRA A1 13 3:13:46 06:15 9.60
431 2167 DIEVAL JACQUES FRA V1 148 3:13:48 06:15 9.60
432 3281 CREPEL NICOLAS FRA SH 196 3:13:53 06:15 9.59
433 3386 HENAUT JULIEN FRA SH 197 3:13:54 06:15 9.59
434 3280 ROUSSEAUX PATRICK FRA V1 149 3:13:55 06:15 9.59
435 3282 CLERBOUT CHRISTOPHE FRA SH 198 3:13:55 06:15 9.59
436 2630 DEVOS CLÉMENT FRA SH 199 3:13:56 06:15 9.59
437 2697 LAGOUCHE JEREMY FRA SH 200 3:13:56 06:15 9.59
438 3049 GUERRIER FRANCK FRA V1 150 3:14:00 06:15 9.59
439 2114 TIMPERMAN KOEN BEL V2 43 3:14:00 06:15 9.59
440 3053 DEWEVRE SIMON FRA SH 201 3:14:04 06:16 9.58
441 2735 LAMMENS FRANÇOIS FRA V1 151 3:14:07 06:16 9.58
442 2412 TAUZIN CECILE FRA SD 25 3:14:08 06:16 9.58
443 2937 FURMANKIEWICZ LUC FRA V1 152 3:14:13 06:16 9.58
444 2911 RZASA PATRICK FRA V2 44 3:14:14 06:16 9.58
445 2325 DUVERNE DIDIER FRA V1 153 3:14:18 06:16 9.57
446 2210 DESURMONT OLIVIER FRA V1 154 3:14:28 06:16 9.56
447 2026 DIOTALEVI VIRGINIE FRA A1 14 3:14:32 06:17 9.56
448 2644 DELEGLISE MARC FRA SH 202 3:14:41 06:17 9.55
449 2758 ACHTE ADRIEN FRA SH 203 3:14:44 06:17 9.55
450 3319 ANTOINE LAETITIA FRA A2 5 3:14:49 06:17 9.55
451 3012 FREDERIC THIERRY FRA V1 155 3:15:14 06:18 9.53
452 2934 FICHAUX FRACOIS FRA V2 45 3:15:19 06:18 9.52
453 2366 BISKUPSKI MATHIEU FRA V1 156 3:15:25 06:18 9.52
454 2602 STOCLET FABIAN BEL SH 204 3:15:27 06:18 9.52
455 2517 CODEVELLE JEAN-CHRISTOPHE FRA V2 46 3:15:41 06:19 9.51
456 3295 GRENIER AURELIEN BEL SH 205 3:15:45 06:19 9.50
457 2900 DE WITTE SÉBASTIEN FRA SH 206 3:15:46 06:19 9.50
458 3449 DIRRYCKX YANNICK FRA V1 157 3:15:47 06:19 9.50
459 2616 LEPRETRE PIERRE FRA SH 207 3:15:51 06:19 9.50
460 3060 MEES SIMON BEL SH 208 3:15:53 06:19 9.50
461 3293 LEROY PASCAL BEL V2 47 3:16:14 06:20 9.48
462 2765 SCHOTT GREGORY FRA SH 209 3:16:16 06:20 9.48
463 2612 BURY GAYLORD BEL V1 158 3:16:17 06:20 9.48
464 2197 HIROUX SYLVAIN FRA SH 210 3:16:21 06:20 9.47
465 2227 VANCOILLIE CÉDRIC FRA SH 211 3:16:21 06:20 9.47
466 2436 CAILLIERET STÉPHANE FRA V1 159 3:16:22 06:20 9.47
467 3444 CHOQUET CLAUDE FRA V1 160 3:16:22 06:20 9.47
468 2244 MAILLET GAETAN FRA V1 161 3:16:23 06:20 9.47
469 2516 FANTINO PASCAL FRA V1 162 3:16:24 06:20 9.47
470 2690 AUNEAU BENJAMIN FRA V1 163 3:16:24 06:20 9.47
471 3436 REMAUD YANNICK FRA V1 164 3:16:24 06:20 9.47
472 2247 BALLIGAND FLORIAN FRA SH 212 3:16:28 06:20 9.47
473 3235 STEELAND GREGORY FRA V1 165 3:16:30 06:20 9.47
474 3392 MALABOEUF PHILIPPE FRA SH 213 3:16:31 06:20 9.46
475 2879 LEYSEN XAVIER BEL V2 48 3:16:32 06:20 9.46
476 2349 BLONDIAUX MAXIME BEL SH 214 3:16:35 06:20 9.46
477 2892 BOECKX PASCAL BEL V1 166 3:16:41 06:21 9.46
478 2939 VANHILLE NICOLAS FRA SH 215 3:16:42 06:21 9.46
479 3025 EL BAAMRANI KARIM BEL SH 216 3:16:50 06:21 9.45
480 2773 LOMBARDO CHRISTELLE FRA SD 26 3:16:57 06:21 9.44
481 2310 DUTRANNOIT VÉRONIQUE FRA A1 15 3:17:00 06:21 9.44
482 2302 CAUDRON DAVID BEL V2 49 3:17:01 06:21 9.44
483 3478 COULLEIT JEAN CHRISTOPHE FRA V1 167 3:17:06 06:21 9.44
484 3347 DUCATEZ PASCAL FRA V2 50 3:17:13 06:22 9.43
485 2108 HOUDART MATTHIEU BEL SH 217 3:17:17 06:22 9.43
486 2284 D'HONT PHILIPPE BEL V1 168 3:17:19 06:22 9.43
487 2093 THOORIS EMMANUEL FRA V1 169 3:17:22 06:22 9.42
488 2060 EECKEMAN THOMAS FRA SH 218 3:17:22 06:22 9.42
489 2574 LEJOSNE ALEXANDRE FRA V1 170 3:17:27 06:22 9.42
490 2505 ECHEVIN SAMUEL FRA V1 171 3:17:42 06:23 9.41
491 2506 DUJARDIN BRUNO FRA V1 172 3:17:42 06:23 9.41
492 2973 LAMBERT GUY BEL V2 51 3:17:46 06:23 9.41
493 2974 HEMMER OLIVIER FRA V1 173 3:17:46 06:23 9.41
494 2006 TRUNFIO VINCENT   V2 52 3:17:47 06:23 9.40
495 3304 VERDONCK MATHIEU FRA V1 174 3:17:48 06:23 9.40
496 3247 LIVRAN JEROME FRA SH 219 3:17:54 06:23 9.40
497 2772 VANDESTEENE MATHIEU FRA SH 220 3:18:07 06:23 9.39
498 3364 QUINTYN MATHIEU BEL SH 221 3:18:25 06:24 9.37
499 2158 GODART PIERRE FRA V2 53 3:18:26 06:24 9.37
500 2451 MARGINET OLIVIER BEL V1 175 3:18:28 06:24 9.37
501 3474 RICHARD LAURENT FRA V1 176 3:18:30 06:24 9.37
502 2668 FREMON CHRISTOPHE FRA V1 177 3:18:39 06:24 9.36
503 2645 PIRAUX BERNARD BEL V1 178 3:18:43 06:25 9.36
504 3022 MOURAND ARNAUD FRA SH 222 3:18:44 06:25 9.36
505 2619 LITZLER FABRICE FRA V1 179 3:18:45 06:25 9.36
506 3394 BRAQUENIER BENOIT BEL SH 223 3:18:45 06:25 9.36
507 2269 BAILLET XAVIER FRA SH 224 3:18:46 06:25 9.36
508 2848 TIBERGHIEN GUILLAUME FRA V1 180 3:18:46 06:25 9.36
509 2406 HAZE MARIE FRA A1 16 3:18:49 06:25 9.36
510 2382 RICHARD REMY FRA SH 225 3:18:51 06:25 9.35
511 2215 MARTIN DENIS FRA V2 54 3:18:52 06:25 9.35
512 2295 DUEZ ANNE SOPHIE FRA SD 27 3:18:56 06:25 9.35
513 3009 BIDAUD FABIEN FRA SH 226 3:19:03 06:25 9.34
514 2238 DEQUIDT PIERRE LOUIS FRA SH 227 3:19:06 06:25 9.34
515 2920 DOP FLORENCE FRA A1 17 3:19:15 06:26 9.34
516 2730 DEMILLY DANY FRA SH 228 3:19:19 06:26 9.33
517 2962 CARRU FABIEN FRA SH 229 3:19:20 06:26 9.33
518 3323 MIQUEL REYNALD FRA V1 181 3:19:23 06:26 9.33
519 2564 CLERX SÉBASTIEN FRA SH 230 3:19:24 06:26 9.33
520 2509 DE QUERCIZE HUGUES FRA V1 182 3:19:41 06:26 9.31
521 2829 VARLET ARNAUD BEL SH 231 3:19:41 06:26 9.31
522 2638 CHARLES RÉMY FRA SH 232 3:19:52 06:27 9.31
523 3215 TONDUSSON STÉPHANE FRA V1 183 3:19:54 06:27 9.30
524 2275 LEMAN CÉDRIC FRA SH 233 3:20:00 06:27 9.30
525 3403 LEFEVRE MARC FRA V2 55 3:20:04 06:27 9.30
526 3031 CNOSSEN JOHAN FRA SH 234 3:20:15 06:28 9.29
527 2591 VANUXEM GREGORY FRA V1 184 3:20:20 06:28 9.28
528 2673 DELEPINE MANUELA FRA SD 28 3:20:42 06:28 9.27
529 2426 DUPIRE STEPHANE FRA V1 185 3:20:44 06:29 9.27
530 3321 ANTOINE BENOIT FRA V2 56 3:20:50 06:29 9.26
531 2584 GUERIN DECOOL CÉCILE FRA A2 6 3:20:56 06:29 9.26
532 2018 GUERIN JEAN-CHRISTOPHE FRA V1 186 3:20:56 06:29 9.26
533 2627 WUILQUE DELPHINE FRA SD 29 3:21:03 06:29 9.25
534 2385 BELARBI HAKIM FRA V1 187 3:21:03 06:29 9.25
535 589 MORAES VALERIE FRA A1 18 3:21:05 06:29 9.25
536 3028 QUENON FRÉDÉRIC BEL V1 188 3:21:05 06:29 9.25
537 2775 MERTENS ANNICK FRA A2 7 3:21:05 06:29 9.25
538 3331 DESMETTE LOIC BEL SH 235 3:21:06 06:29 9.25
539 3354 LESPAGNARD JEAN MARC FRA V1 189 3:21:07 06:29 9.25
540 3244 PREUVOT DIDIER FRA V2 57 3:21:19 06:30 9.24
541 2061 VANDEN EYNDEN FREDERIC BEL V1 190 3:21:22 06:30 9.24
542 3233 DEHEUNYNCK GUILLAUME FRA SH 236 3:21:28 06:30 9.23
543 2480 OLIVIER MAXENCE FRA SH 237 3:21:28 06:30 9.23
544 2184 DEHOUSSE VINCENT FRA SH 238 3:21:30 06:30 9.23
545 3306 BIART QUENTIN FRA SH 239 3:21:32 06:30 9.23
546 3349 MALVAUX VINCENT FRA V2 58 3:21:32 06:30 9.23
547 2696 BRULIN VINCENT FRA V1 191 3:21:33 06:30 9.23
548 2292 ENGRAND GUILLAUME FRA V1 192 3:21:34 06:30 9.23
549 3313 HIAULT NICOLAS FRA SH 240 3:21:34 06:30 9.23
550 2867 VANDESQUILLE HERVE FRA V2 59 3:21:35 06:30 9.23
551 3390 MASCARTE JEAN PHILIPPE FRA SH 241 3:21:36 06:30 9.23
552 2660 ROYER LUDOVIC FRA SH 242 3:21:46 06:31 9.22
553 2922 BRASSELET BASTIEN FRA SH 243 3:22:01 06:31 9.21
554 2844 LEROY VINCENT BEL SH 244 3:22:07 06:31 9.20
555 2813 MONIE FRANCOIS FRA V1 193 3:22:10 06:31 9.20
556 2492 DELETTREZ TONY FRA V1 194 3:22:11 06:31 9.20
557 3242 DAGNEAUX JULIEN FRA SH 245 3:22:13 06:31 9.20
558 2135 LEFEBVRE FRÉDÉRIC FRA V2 60 3:22:16 06:31 9.20
559 3252 BOENS FRÉDÉRIC FRA V1 195 3:22:16 06:31 9.20
560 2992 BOURGAU FREDERIC FRA SH 246 3:22:19 06:32 9.19
561 3389 GATIN CHRISTOPHE FRA V1 196 3:22:20 06:32 9.19
562 2663 BURNIAT OLIVIER FRA SH 247 3:22:20 06:32 9.19
563 3045 NIEUWLAND NICOLAS BEL V1 197 3:22:22 06:32 9.19
564 3276 GANTOIS NICOLAS FRA SH 248 3:22:23 06:32 9.19
565 2600 MARQUE ARNAUD FRA V1 198 3:22:24 06:32 9.19
566 3057 LISON SEBASTIEN FRA V1 199 3:22:30 06:32 9.19
567 2862 CHARLES ANTOINE FRA SH 249 3:22:31 06:32 9.18
568 2178 LECHANTRE GILLES FRA V1 200 3:22:35 06:32 9.18
569 2864 BRABANT GREGORY FRA V1 201 3:22:38 06:32 9.18
570 3399 BRASSELET CYRILLE FRA SH 250 3:22:43 06:32 9.18
571 2266 ANTROPE NICOLAS FRA V1 202 3:22:44 06:32 9.17
572 2985 BOIDIN DENIS FRA V1 203 3:22:50 06:33 9.17
573 2191 RAULT FRANÇOIS FRA V2 61 3:22:52 06:33 9.17
574 3021 BUSIERE THIERRY FRA V2 62 3:22:54 06:33 9.17
575 3284 FONSECA SEBASTIEN FRA V1 204 3:22:57 06:33 9.16
576 2647 HAGUE ANTHONY FRA V1 205 3:23:00 06:33 9.16
577 2819 PONCELET DAVID BEL SH 251 3:23:04 06:33 9.16
578 2977 DION BERNADETTE BEL A2 8 3:23:06 06:33 9.16
579 2966 LEFEVRE THIERRY FRA V2 63 3:23:11 06:33 9.15
580 2369 VASSALLO LORENZO FRA V1 206 3:23:12 06:33 9.15
581 2534 CODRON ARNAUD FRA V1 207 3:23:32 06:34 9.14
582 2965 LEROY BERNARD BEL V2 64 3:23:42 06:34 9.13
583 2348 VOGELEER MICHEL BEL V1 208 3:23:43 06:34 9.13
584 2002 AVOT MARTIN   SH 252 3:23:44 06:34 9.13
585 2001 AVOT VICTOR   SH 253 3:23:44 06:34 9.13
586 3303 DORIGNY FABIAN FRA SH 254 3:23:46 06:34 9.13
587 2221 VAQUETTE BRUNO FRA V1 209 3:23:48 06:34 9.13
588 2233 MULLER EMMANUEL FRA V1 210 3:23:48 06:34 9.13
589 2000 FILMOTTE FRANCK   SH 255 3:23:51 06:35 9.12
590 2262 LOUF BERNARD FRA SH 256 3:23:53 06:35 9.12
591 3348 DECOTTEGNIE ERIC FRA V2 65 3:23:55 06:35 9.12
592 2751 CHOMCY CAROLYN CAN SD 30 3:23:55 06:35 9.12
593 2450 WATIER DENIS FRA V2 66 3:23:59 06:35 9.12
594 2683 BAHEU EDDY FRA V1 211 3:23:59 06:35 9.12
595 2372 AMOEDO LUDOVIC FRA V1 212 3:24:06 06:35 9.11
596 3296 FOUCART PIERRE BEL SH 257 3:24:07 06:35 9.11
597 2055 GONNET AMAURY FRA SH 258 3:24:07 06:35 9.11
598 2344 STRACHE JONATHAN FRA V1 213 3:24:18 06:35 9.10
599 2682 YVON LUDOVIC FRA V1 214 3:24:27 06:36 9.10
600 2921 TESNIERE FRANCK FRA V1 215 3:24:30 06:36 9.10
601 2750 JEAN PHILIPPE ETCHEPARE FRA SH 259 3:24:32 06:36 9.09
602 3043 LIBERT STEPHANE FRA SH 260 3:24:45 06:36 9.08
603 2982 BAILLIE ARNAUD FRA V1 216 3:25:19 06:37 9.06
604 3226 COUSTY FRANCK FRA V1 217 3:25:27 06:38 9.05
605 2787 VANHUYSE ROMAIN FRA SH 261 3:25:28 06:38 9.05
606 2723 VANZEVEREN SIMON FRA SH 262 3:25:28 06:38 9.05
607 3482 CHALON CATHERINE FRA A1 19 3:25:32 06:38 9.05
608 2719 THOMAS CHISTOPHE FRA V1 218 3:25:33 06:38 9.05
609 2976 RUISSEAU EMMANUEL FRA V1 219 3:25:34 06:38 9.05
610 2868 FOVET OLIVIER FRA SH 263 3:25:54 06:39 9.03
611 2996 LAPORTE FRANCK FRA SH 264 3:25:56 06:39 9.03
612 3496 BONNEAU DESROCHES LIONNEL FRA V1 220 3:26:04 06:39 9.03
613 3266 CAMUS LAURENT FRA V1 221 3:26:10 06:39 9.02
614 2014 PROUVOT MAITA   A1 20 3:26:10 06:39 9.02
615 3380 BERNARD JULIEN FRA V1 222 3:26:13 06:39 9.02
616 2703 DEPERNE CHRISTELLE FRA A1 21 3:26:15 06:39 9.02
617 2448 PIRARD JEAN-LUC BEL V2 67 3:26:18 06:39 9.02
618 2585 MOREELS PIERRE FRA V2 68 3:26:20 06:39 9.01
619 2818 FACQ MATTHIEU FRA SH 265 3:26:23 06:39 9.01
620 2463 DURDUX REMI   SH 266 3:26:24 06:39 9.01
621 3414 MICHEAUX CHARLOTTE FRA SD 31 3:26:34 06:40 9.00
622 2533 KLEIN CATHERINE FRA A2 9 3:26:41 06:40 9.00
623 3499 TRENTESAUX THOMAS FRA SH 267 3:26:53 06:40 8.99
624 2902 TURLUTTE ERIC FRA SH 268 3:26:53 06:40 8.99
625 3446 NORMAND OLIVIER FRA V1 223 3:27:02 06:41 8.98
626 2322 ANDRÉ ANNE-FLORE FRA SD 32 3:27:05 06:41 8.98
627 2373 GHYSEL VINCENT FRA SH 269 3:27:06 06:41 8.98
628 3038 LE FUR YANN FRA V1 224 3:27:06 06:41 8.98
629 2375 BONNEAUD MATHIEU FRA SH 270 3:27:07 06:41 8.98
630 3327 WALLARD MATTHIEU FRA SH 271 3:27:08 06:41 8.98
631 2628 GRAS LOUIS FRA SH 272 3:27:18 06:41 8.97
632 2629 MARTEL PAULINE FRA SD 33 3:27:18 06:41 8.97
633 3217 LEMAITRE JEROME FRA V1 225 3:27:24 06:41 8.97
634 2626 VANDOOREN PAUL FRA SH 273 3:27:30 06:42 8.96
635 2893 DELTOUR OLIVIER FRA V1 226 3:27:38 06:42 8.96
636 2281 LEVITRE FRANCK FRA V2 69 3:27:46 06:42 8.95
637 2282 DELBARRE FABIENNE FRA A1 22 3:27:46 06:42 8.95
638 2945 FOUCAULT CHRISTIAN FRA V3 6 3:27:50 06:42 8.95
639 2993 LUBREZ NICOLAS FRA SH 274 3:27:50 06:42 8.95
640 2979 BODDAERT PIERRE FRA V2 70 3:27:51 06:42 8.95
641 2958 GOFFIN PASCAL BEL V2 71 3:27:51 06:42 8.95
642 3234 CHARLET JULIEN FRA SH 275 3:27:52 06:42 8.95
643 2203 BRUTSAERT FRANCK FRA V1 227 3:27:53 06:42 8.95
644 3367 CALVIN JEREMY FRA SH 276 3:27:54 06:42 8.95
645 2989 PINTEAUX SÉBASTIEN FRA SH 277 3:28:00 06:43 8.94
646 2341 JOLY PASCAL FRA V1 228 3:28:02 06:43 8.94
647 2416 LEBEURRE NICOLAS FRA SH 278 3:28:03 06:43 8.94
648 3172 ABOU-HACEM NADIA FRA A1 23 3:28:04 06:43 8.94
649 3395 SORIS FREDERIC BEL V1 229 3:28:07 06:43 8.94
650 3023 DELMOTTE RÉMY FRA SH 279 3:28:08 06:43 8.94
651 2661 BELLOUR ARNAUD FRA V1 230 3:28:08 06:43 8.94
652 2882 LATREILLE PHILIPPE FRA V1 231 3:28:13 06:43 8.93
653 2519 MERCHIE LAURENCE FRA A2 10 3:28:14 06:43 8.93
654 2975 DELANGUE NICOLAS FRA V1 232 3:28:17 06:43 8.93
655 2915 HOUPIN DENIS FRA V1 233 3:28:20 06:43 8.93
656 3297 MALVOISIN FLORIAN BEL SH 280 3:28:21 06:43 8.93
657 2780 NIEUWLAND JEAN-FRANCOIS BEL V1 234 3:28:25 06:43 8.92
658 3194 BORNAIS THOMAS FRA SH 281 3:28:25 06:43 8.92
659 2566 VERDONCK BRUNO BEL SH 282 3:28:31 06:44 8.92
660 2687 CAMELBEKE GEERT BEL V1 235 3:28:31 06:44 8.92
661 2415 NOEL CLEMENT FRA SH 283 3:28:33 06:44 8.92
662 2380 KEUSSEIAN GERALDINE FRA SD 34 3:28:36 06:44 8.92
663 2333 BOULET SEBASTIEN FRA V1 236 3:28:37 06:44 8.92
664 2418 TALPAERT ZOE FRA SD 35 3:28:49 06:44 8.91
665 2548 TALPAERT ANTHONY FRA SH 284 3:28:49 06:44 8.91
666 3469 BAUDHUIN GUILLAUME FRA V1 237 3:28:52 06:44 8.91
667 2493 SCHEERS MARION FRA SD 36 3:28:53 06:44 8.90
668 2885 GRACIN PHILIPPE FRA V1 238 3:28:56 06:44 8.90
669 2843 SORRIAUX BRYAN BEL SH 285 3:28:59 06:44 8.90
670 3488 DELPIERRE ARNAUD FRA V1 239 3:29:14 06:45 8.89
671 3457 BULENS DAVID BEL V1 240 3:29:17 06:45 8.89
672 3314 JOSEPH YANN FRA V1 241 3:29:27 06:45 8.88
673 2194 THIRY ALEXANDRE FRA V1 242 3:29:27 06:45 8.88
674 2163 MAES SÉBASTIEN FRA V1 243 3:29:28 06:45 8.88
675 2936 ANDRE VINCENT FRA V1 244 3:29:32 06:46 8.88
676 2361 LACAILLE YOANN FRA SH 286 3:29:32 06:46 8.88
677 2360 BAUDOUIN ELODIE FRA SD 37 3:29:33 06:46 8.88
678 3422 BAUDELET GÉRARD FRA V2 72 3:29:33 06:46 8.88
679 2340 JOSIEN JULIEN FRA SH 287 3:29:35 06:46 8.87
680 2535 BRASSEUR SÉBASTIEN FRA SH 288 3:29:38 06:46 8.87
681 2277 DAUDREZ MATHIEU FRA SH 289 3:29:42 06:46 8.87
682 2763 RAMERY SÉBASTIEN FRA V1 245 3:29:44 06:46 8.87
683 2669 CRANINX LUC BEL V2 73 3:29:55 06:46 8.86
684 2572 DUMONT AMÉLIE FRA A1 24 3:30:04 06:47 8.85
685 3412 NEMEGHAIRE LAURENT BEL V1 246 3:30:06 06:47 8.85
686 2326 LEMAIRE GEOFFREY FRA SH 290 3:30:09 06:47 8.85
687 2137 DEBANDT VERONIQUE FRA A2 11 3:30:09 06:47 8.85
688 2053 BRABANT JULIEN FRA SH 291 3:30:11 06:47 8.85
689 2896 DELECLUSE MAXIME BEL SH 292 3:30:12 06:47 8.85
690 3369 DE WAEGENAERE HERVÉ FRA V2 74 3:30:22 06:47 8.84
691 3368 FAUQUEMBERGUE KÉVIN FRA SH 293 3:30:22 06:47 8.84
692 2913 LECLERCQ SYLVAIN FRA V1 247 3:30:46 06:48 8.82
693 3489 VASSEUR SYLVAIN FRA SH 294 3:30:58 06:48 8.82
694 3480 VERIN DAVID FRA V1 248 3:31:23 06:49 8.80
695 2635 PALLADINO GERALDINE FRA A1 25 3:31:23 06:49 8.80
696 2069 STIRA NAJIB FRA V2 75 3:31:30 06:49 8.79
697 2568 HANQUIEZ FRÉDÉRIC FRA V1 249 3:31:45 06:50 8.78
698 2749 LAGACHE DAMIEN FRA SH 295 3:31:49 06:50 8.78
699 3052 KNOCKAERT ANTHONY FRA SH 296 3:31:49 06:50 8.78
700 3439 FAUQUENOI ARNAUD FRA V2 76 3:31:53 06:50 8.78
701 2653 DROBINOHA GUY FRA V2 77 3:32:01 06:50 8.77
702 2624 SEN CHRISNA FRA SD 38 3:32:03 06:50 8.77
703 2445 PASSEPONT GAELLE FRA SD 39 3:32:04 06:50 8.77
704 2560 PANKANIN GRÉGOIRE FRA SH 297 3:32:10 06:51 8.77
705 2559 GRARDEL VICTOR FRA SH 298 3:32:10 06:51 8.77
706 2470 CLERBOUT MARC FRA V2 78 3:32:12 06:51 8.77
707 2396 CAENEN BASTIEN FRA SH 299 3:32:19 06:51 8.76
708 2043 MEESE HELMUT BEL V1 250 3:32:19 06:51 8.76
709 3377 FOUQUEROLLE SÉBASTIEN FRA SH 300 3:32:32 06:51 8.75
710 3473 FATIER ODILE FRA A1 26 3:32:33 06:51 8.75
711 2376 ROQUETTE ADRIEN FRA SH 301 3:32:36 06:51 8.75
712 2540 DELCOURT JEAN-PHILIPPE FRA V2 79 3:32:40 06:52 8.75
713 3485 DAILLY LAURENT FRA V1 251 3:32:53 06:52 8.74
714 2605 GUILLEMIN PHILIPPE FRA V1 252 3:33:09 06:53 8.73
715 3027 MAILLET EDDY BEL V1 253 3:33:09 06:53 8.73
716 3381 BOURSIEZ MATHIEU FRA SH 302 3:33:14 06:53 8.72
717 2873 PLANCON ALAIN FRA V2 80 3:33:16 06:53 8.72
718 2528 PILATE ALEXIS BEL SH 303 3:33:22 06:53 8.72
719 2808 DEFFONTAINE JULIE FRA SD 40 3:33:23 06:53 8.72
720 3492 GRIERE AURORE FRA SD 41 3:33:23 06:53 8.72
721 3423 DEFFONTAINE ALEXANDRE FRA SH 304 3:33:23 06:53 8.72
722 2419 GRIERE BAPTISTE FRA SH 305 3:33:23 06:53 8.72
723 3044 LOCATELLI PASCAL FRA V3 7 3:33:27 06:53 8.71
724 2408 GASGANIAS AUDREY FRA SD 42 3:33:29 06:53 8.71
725 2286 QUELQUEJAY FLORENT FRA SH 306 3:33:32 06:53 8.71
726 3431 GROMENIL HERVÉ FRA V2 81 3:33:34 06:53 8.71
727 2112 DEKEISTER HUBERT FRA V2 82 3:33:36 06:53 8.71
728 2713 WATTEL MARGAUX FRA SD 43 3:33:40 06:54 8.71
729 3334 JASNIAK SEBASTIEN FRA SH 307 3:33:42 06:54 8.70
730 3289 PAPALIA BENEDETTO ITA V1 254 3:33:42 06:54 8.70
731 3041 HAVET PHILIPPE FRA V1 255 3:33:43 06:54 8.70
732 3042 CATRICE FREDERIQUE FRA A1 27 3:33:43 06:54 8.70
733 2678 BERNARD KATTY BEL A1 28 3:33:45 06:54 8.70
734 3456 FRANÇOIS SOPHIE FRA A1 29 3:33:47 06:54 8.70
735 2649 LE FICHANT LIONEL FRA V1 256 3:33:47 06:54 8.70
736 2173 MORIMONT PHILIPPE BEL V1 257 3:33:52 06:54 8.70
737 2571 DUMONT FRANCOIS FRA V1 258 3:33:56 06:54 8.69
738 2944 BONNECHERE XAVIER FRA V1 259 3:33:57 06:54 8.69
739 2589 DURIEZ JEREMY FRA V1 260 3:33:58 06:54 8.69
740 2946 FOUCAULT VIRGINIE FRA A1 30 3:33:59 06:54 8.69
741 2144 DECLERCQ THOMAS FRA SH 308 3:34:01 06:54 8.69
742 2530 FOURNIER CATHERINE FRA A1 31 3:34:03 06:54 8.69
743 3195 STAELS MATTHIEU FRA V1 261 3:34:06 06:54 8.69
744 3056 BOUDIN THOMAS FRA SH 309 3:34:10 06:55 8.68
745 2557 DE CLIPPELE BRUNO BEL V2 83 3:34:19 06:55 8.68
746 3288 LEGRAND SOPHIE FRA SD 44 3:34:23 06:55 8.68
747 2498 VANDERBEKEN YANNICK FRA V1 262 3:34:30 06:55 8.67
748 2931 GUILBERT KEVIN FRA SH 310 3:34:39 06:55 8.67
749 2431 RAULT SÉBASTIEN FRA SH 311 3:34:39 06:55 8.67
750 3309 DEVIN JULIEN FRA SH 312 3:34:40 06:55 8.66
751 2622 LAI GERARD BEL V2 84 3:34:43 06:56 8.66
752 2508 KRIEGER OLIVIER FRA V1 263 3:34:45 06:56 8.66
753 3385 FEUTRY VINCENT FRA V1 264 3:34:45 06:56 8.66
754 2604 ALOS EMMANUEL FRA V1 265 3:34:45 06:56 8.66
755 2413 NEDJADI MELIZA FRA SD 45 3:34:46 06:56 8.66
756 2414 FROISSART TEDDY FRA SH 313 3:34:46 06:56 8.66
757 2615 PIAT GILLES FRA V2 85 3:34:47 06:56 8.66
758 3046 BATOUL DAVID FRA V1 266 3:35:01 06:56 8.65
759 3047 DESCAMPS ARNAUD FRA V1 267 3:35:01 06:56 8.65
760 3048 CHASLE ALEXANDRE FRA V1 268 3:35:02 06:56 8.65
761 2159 AMARTIN EMMANUEL FRA V2 86 3:35:10 06:56 8.64
762 3379 DEWOLF FABRICE FRA V1 269 3:35:10 06:56 8.64
763 2138 GRUT DOMINIQUE FRA V2 87 3:35:10 06:56 8.64
764 2692 HEUZE STEPHANE FRA V1 270 3:35:11 06:56 8.64
765 2109 TOULEMONDE LAURENT FRA V2 88 3:35:12 06:57 8.64
766 2912 LECLERCQ CHRISTOPHE FRA V1 271 3:35:25 06:57 8.63
767 2486 THORLET MAXIME FRA SH 314 3:35:37 06:57 8.63
768 2456 BLONDEL JULIEN FRA SH 315 3:35:37 06:57 8.63
769 2424 BLOT EMMANUEL FRA V1 272 3:35:38 06:57 8.63
770 2401 BLOT CATHERINE FRA A1 32 3:35:38 06:57 8.63
771 3267 MARSEILLE EMMANUEL FRA V2 89 3:35:40 06:57 8.62
772 2526 LEFEBVRE LORÈNE FRA SD 46 3:35:49 06:58 8.62
773 3413 DELSINNE FLORENCE FRA A1 33 3:35:53 06:58 8.62
774 2770 HENE OLIVIER BEL V1 273 3:35:57 06:58 8.61
775 3245 BOLVIN LUC FRA V1 274 3:36:00 06:58 8.61
776 2330 VASSEUR CHRISTELLE FRA A2 12 3:36:01 06:58 8.61
777 3277 BASSIBEI LAURENCE BEL A1 34 3:36:03 06:58 8.61
778 3278 MOREAU CHRISTOPHE BEL V1 275 3:36:03 06:58 8.61
779 2532 BISIAUX LAURENT FRA V1 276 3:36:04 06:58 8.61
780 2743 VERHEYDE LAURENT FRA V1 277 3:36:04 06:58 8.61
781 2355 GRESSIER DANIEL FRA V3 8 3:36:06 06:58 8.61
782 2354 GRESSIER CECILE FRA SD 47 3:36:06 06:58 8.61
783 3279 CARLON ANNE-SOPHIE FRA A1 35 3:36:14 06:59 8.60
784 2230 ALLARD FRANCE FRA SD 48 3:36:14 06:59 8.60
785 3265 BOUTEMY CHRISTIAN FRA V1 278 3:36:24 06:59 8.60
786 2814 RUISSEAU MAXIME BEL SH 316 3:36:26 06:59 8.59
787 3249 FABRIZIO FRÉDÉRIC FRA V1 279 3:36:40 06:59 8.58
788 2740 KUREK HERVE FRA V1 280 3:36:42 06:59 8.58
789 2807 DANGUIEN DAVID FRA SH 317 3:36:49 07:00 8.58
790 2268 BOUHAFS BR FRA V1 281 3:36:57 07:00 8.57
791 3483 SZYMONIAK LEON FRA V3 9 3:36:57 07:00 8.57
792 2479 FLORENT AURELIEN FRA SH 318 3:37:02 07:00 8.57
793 2510 ROSE LOUIS FRA SH 319 3:37:07 07:00 8.57
794 3458 DRUART OLIVIER BEL SH 320 3:37:08 07:00 8.57
795 2271 VIESLET BERNARD BEL V2 90 3:37:15 07:00 8.56
796 2011 DUFOUR ANTOINE   SH 321 3:37:16 07:01 8.56
797 3330 DECLERCQ YANNICK FRA V1 282 3:37:17 07:01 8.56
798 3254 AISSAOUI RACHID FRA V1 283 3:37:32 07:01 8.55
799 2570 RYSPERT MALIKA FRA A1 36 3:37:37 07:01 8.55
800 2906 GUILLUY SEVERINE FRA A1 37 3:37:51 07:02 8.54
801 2126 KALUZNY BENOIT FRA V1 284 3:37:59 07:02 8.53
802 2699 TÉTIN PIERRE-ANTOINE FRA SH 322 3:38:03 07:02 8.53
803 2410 VANDEN TORREN OLIVIER FRA SH 323 3:38:14 07:02 8.52
804 2439 CARLU ALEXANDRE FRA SH 324 3:38:16 07:02 8.52
805 2332 LEMAIRE FRANCK FRA V2 91 3:38:18 07:03 8.52
806 3335 PENNEQUIN PASCAL FRA V2 92 3:38:22 07:03 8.52
807 2785 PUECH WILLY FRA V1 285 3:38:25 07:03 8.52
808 2741 DEMUYNCK BERTRAND FRA V2 93 3:38:29 07:03 8.51
809 2816 MARGERIN VINCENT FRA V1 286 3:38:37 07:03 8.51
810 2815 MARGERIN FREDERIQUE FRA A1 38 3:38:37 07:03 8.51
811 3434 ELKOHEN MARIAM FRA A2 13 3:38:41 07:03 8.51
812 3326 DEMUYNCK CLEMENT FRA SH 325 3:38:41 07:03 8.51
813 2698 ROSE ALEXANDRE FRA SH 326 3:38:42 07:03 8.50
814 3069 PEPIN THIERRY FRA V2 94 3:38:44 07:03 8.50
815 3211 PIERRET STEPHANE BEL V1 287 3:38:56 07:04 8.50
816 2828 SARENS JOS BEL V2 95 3:39:19 07:04 8.48
817 2695 GAUTHIER PATRICK FRA V2 96 3:39:20 07:05 8.48
818 3213 DEFFONTAINES LUCIE FRA A1 39 3:39:23 07:05 8.48
819 2147 ROLLAND CHRISTIAN FRA V1 288 3:39:24 07:05 8.48
820 2422 VANPOUCKE FREDERIC FRA V1 289 3:39:36 07:05 8.47
821 2339 CAPRIGLIONE EMANUEL FRA V2 97 3:39:50 07:05 8.46
822 2853 CALMELS PIERRE-HENRI FRA SH 327 3:39:53 07:06 8.46
823 2790 DELACENSERIE CARINE BEL A1 40 3:39:53 07:06 8.46
824 2299 FREMAUX GUILLAUME FRA V1 290 3:40:00 07:06 8.45
825 3450 LEDUC NATHALIE FRA A2 14 3:40:07 07:06 8.45
826 3451 NAEPELS FREDERIC FRA V1 291 3:40:07 07:06 8.45
827 3263 VANOYE GUILLAUME FRA V1 292 3:40:12 07:06 8.45
828 3248 SAMIEZ VINCENT FRA V1 293 3:40:15 07:06 8.44
829 2573 NOEL SANDRINE FRA SD 49 3:40:19 07:06 8.44
830 2825 DELORY NICOLAS FRA V1 294 3:40:25 07:07 8.44
831 2810 SKUBISZEWSKA JOLANTA POL A1 41 3:40:26 07:07 8.44
832 2898 SEILLIER MARJOLAINE FRA SD 50 3:40:31 07:07 8.43
833 3256 HERBEZ NICOLAS FRA SH 328 3:40:32 07:07 8.43
834 2196 MERLIN OLIVIER FRA V1 295 3:40:32 07:07 8.43
835 2746 HAYEN THOMAS FRA SH 329 3:40:38 07:07 8.43
836 3417 DEPLANCK CHARLES-ERIC FRA SH 330 3:40:39 07:07 8.43
837 2694 FOSSÉ THOMAS FRA V1 296 3:40:47 07:07 8.42
838 3433 DOUTRELONG FRÉDÉRIC FRA V1 297 3:40:49 07:07 8.42
839 3427 CHARASSON LAURENT FRA SH 331 3:41:01 07:08 8.42
840 3271 MOUNIB ROBERT FRA V1 298 3:41:14 07:08 8.41
841 2700 BOURGUIGNON FRÉDÉRIC FRA SH 332 3:41:27 07:09 8.40
842 2870 MOUTON OLIVIER FRA V1 299 3:41:28 07:09 8.40
843 2336 DELVALLEZ SÉBASTIEN FRA SH 333 3:41:29 07:09 8.40
844 2176 ZBIERSKI CHRISTOPHE FRA V2 98 3:41:33 07:09 8.40
845 2633 PEUCELLE RICHARD FRA V3 10 3:41:35 07:09 8.39
846 2514 HAU ÉRIC FRA V2 99 3:41:38 07:09 8.39
847 2350 DENIS MAILIS FRA SD 51 3:41:50 07:09 8.38
848 2351 TONNEAU DOMINIQUE FRA V2 100 3:41:50 07:09 8.38
849 2553 LETIENNE AGATHE FRA SD 52 3:42:06 07:10 8.37
850 2046 DELLOYE THIBAUD FRA SH 334 3:42:20 07:10 8.37
851 2613 DUQUENOY HUGO FRA V1 300 3:42:21 07:10 8.37
852 2157 BARBIER NATHALIE FRA A2 15 3:42:22 07:10 8.36
853 3010 VANBERTEN PASCAL FRA SH 335 3:42:25 07:10 8.36
854 2291 LESCHAEVE DAVID FRA V1 301 3:42:29 07:11 8.36
855 2923 SGALBIERO ORAZIO ITA V3 11 3:42:36 07:11 8.36
856 2777 DERANGERE NICOLAS FRA SH 336 3:42:41 07:11 8.35
857 2919 BALESTAN ISABELLE FRA A1 42 3:42:48 07:11 8.35
858 2651 MARGOLLE PHILIPPE FRA V1 302 3:42:51 07:11 8.35
859 2995 BEAUBOIS XAVIER FRA V2 101 3:42:52 07:11 8.35
860 2301 BRABANT CORENTIN FRA SH 337 3:42:53 07:11 8.35
861 2371 VANPEENE PHILIPPE FRA V3 12 3:43:00 07:12 8.34
862 3375 JEANNOT MAUD FRA SD 53 3:43:03 07:12 8.34
863 3241 LEROY SYLVAIN FRA SH 338 3:43:07 07:12 8.34
864 2850 DAILLY NICOLAS FRA SH 339 3:43:08 07:12 8.34
865 2440 ALLOUCHI SOULIMED FRA V1 303 3:43:08 07:12 8.34
866 2792 GRATIEN FREDERIC FRA V2 102 3:43:09 07:12 8.34
867 2907 BOURGUIGNON VIANNEY FRA SH 340 3:43:12 07:12 8.33
868 2521 BOGAERT CHRISTEL FRA A1 43 3:43:14 07:12 8.33
869 2901 MACARY MAUD FRA SD 54 3:43:14 07:12 8.33
870 2998 DESCHUYTENEER STEPHANE BEL V1 304 3:43:17 07:12 8.33
871 2264 HOLUIGUE VIRGINIE FRA SD 55 3:43:18 07:12 8.33
872 2677 DE FRANCQUEVILLE MARIE FRA A2 16 3:43:18 07:12 8.33
873 3429 RASOLOHARIMAHEFA MICHELE BEL SD 56 3:43:21 07:12 8.33
874 2025 DIOTALEVI JEROME FRA V1 305 3:43:23 07:12 8.33
875 3201 THOMAS VERONIQUE BEL SD 57 3:43:27 07:12 8.32
876 2736 FOREST FRANTZ FRA V2 103 3:43:27 07:12 8.32
877 3258 JOLAIN NICOLAS FRA V2 104 3:44:05 07:14 8.30
878 2047 THIEBAUT ANDRE FRA V2 105 3:44:18 07:14 8.29
879 2367 DJEZIRI SAMIRA FRA A1 44 3:44:23 07:14 8.29
880 2609 DELEPORTE PIERRE FRA SH 341 3:44:23 07:14 8.29
881 2851 MAZINGARBE HERVE FRA V1 306 3:44:34 07:15 8.28
882 2854 IKHADRIOUENE FARID FRA V1 307 3:44:43 07:15 8.28
883 2335 SENELAER BENOÎT FRA SH 342 3:44:44 07:15 8.28
884 3198 LAFON SYLVAIN FRA SH 343 3:44:45 07:15 8.28
885 2636 VANDENSTORME EMMANUELLE FRA A1 45 3:45:15 07:16 8.26
886 2632 FEVRIER CORINNE FRA A2 17 3:45:15 07:16 8.26
887 2733 SOUSA FONSECA MATTHIEU FRA V1 308 3:45:16 07:16 8.26
888 3353 CROQUELOIS ALEXANDRE FRA SH 344 3:45:17 07:16 8.26
889 2970 DEBEIR GUILLAUME FRA SH 345 3:45:18 07:16 8.26
890 2454 DE SMET PATRICK BEL V2 106 3:45:18 07:16 8.26
891 3435 VERHOYE FILIP BEL SH 346 3:45:20 07:16 8.25
892 2236 WEYTSMAN CELINE FRA SD 58 3:45:20 07:16 8.25
893 2969 THUILLEZ MAUD FRA SD 59 3:45:20 07:16 8.25
894 2794 VANHEEMS FRANCOIS FRA V1 309 3:45:29 07:16 8.25
895 2490 NOULET ALISON BEL SD 60 3:45:32 07:17 8.25
896 2582 DRUART ISABELLE BEL A1 46 3:45:36 07:17 8.24
897 3365 GHEZALI STEPHANE FRA V2 107 3:45:43 07:17 8.24
898 3260 HOULIEZ MATHIEU FRA SH 347 3:45:51 07:17 8.24
899 2725 DELATTRE FRANÇOIS FRA V2 108 3:45:52 07:17 8.23
900 2593 DELPIERRE BENOIT FRA V1 310 3:45:52 07:17 8.23
901 2929 PASTANT DOMINIQUE FRA A2 18 3:45:54 07:17 8.23
902 1044 BALLEZ FRANÇOIS BEL V2 109 3:46:02 07:17 8.23
903 2561 VANHAMME OLIVIER FRA V2 110 3:46:13 07:18 8.22
904 3419 TAQUET JEAN CLAUDE FRA V2 111 3:46:18 07:18 8.22
905 2466 KIK CHRISTOPHE FRA V1 311 3:46:18 07:18 8.22
906 2427 DUTHOY QUENTIN FRA SH 348 3:46:23 07:18 8.22
907 3322 HENOT HUGO FRA SH 349 3:46:31 07:18 8.21
908 2527 MARCHAND JEAN-FRANÇOIS BEL V1 312 3:46:39 07:19 8.21
909 2610 LOTTERIE REGIS FRA V1 313 3:46:40 07:19 8.21
910 3209 JUBERT MICKAEL FRA SH 350 3:46:42 07:19 8.20
911 2724 MULLIEZ FABIEN FRA V2 112 3:46:44 07:19 8.20
912 2346 PERULAT PATRICE FRA SH 351 3:46:47 07:19 8.20
913 2345 LENGRAND MICKAEL FRA SH 352 3:46:48 07:19 8.20
914 2347 BOTTE CHRISTOPHE FRA V1 314 3:46:49 07:19 8.20
915 2017 SANDEVOIR ALEXIS FRA V1 315 3:46:54 07:19 8.20
916 2019 GLANGETAS ANTOINE FRA V1 316 3:46:54 07:19 8.20
917 2686 ABOUKAIS MARIE FRA SD 61 3:46:54 07:19 8.20
918 2676 MAGNIER LAURENT FRA V3 13 3:46:57 07:19 8.20
919 2782 MAGNIER DAVID FRA SH 353 3:46:58 07:19 8.20
920 3299 FOLCQUE PHILIPPE BEL V2 113 3:47:01 07:19 8.19
921 3239 BEAREZ FRANCK FRA V1 317 3:47:02 07:19 8.19
922 3298 VAUSE FABIENNE BEL A2 19 3:47:02 07:19 8.19
923 2978 DION CAROLINE BEL A1 47 3:47:06 07:20 8.19
924 2748 PARAGE VALERIE BEL A1 48 3:47:12 07:20 8.19
925 2639 DELBECQUE JULIEN FRA SH 354 3:47:16 07:20 8.18
926 3255 PAQUET ERIC BEL SH 355 3:47:17 07:20 8.18
927 2324 DELMOTTE CÉLINE BEL SD 62 3:47:18 07:20 8.18
928 3487 TASSART MAXIME BEL SD 63 3:47:18 07:20 8.18
929 2821 MACREZ JÉRÔME FRA SH 356 3:47:25 07:20 8.18
930 3312 NEMRI DAVID FRA SH 357 3:47:33 07:20 8.17
931 2718 SORHOUET CHRISTINE FRA A2 20 3:47:38 07:21 8.17
932 3204 LEPLEUX CHRISTOPHE FRA SH 358 3:47:53 07:21 8.16
933 3471 SOMMELET VALERIE FRA A1 49 3:48:01 07:21 8.16
934 2861 LERICQUE SYLVIE BEL A1 50 3:48:05 07:21 8.15
935 3481 CHALON LUC FRA V2 114 3:48:05 07:21 8.15
936 3408 HOCK FRANÇOISE BEL A2 21 3:48:08 07:22 8.15
937 2753 MERCIER LUC BEL V2 115 3:48:08 07:22 8.15
938 2757 WATTEZ DAVID FRA V1 318 3:48:15 07:22 8.15
939 2756 GONIN THOMAS FRA V1 319 3:48:15 07:22 8.15
940 2755 LEFEBVRE GUILLAUME FRA V1 320 3:48:15 07:22 8.15
941 2798 PORICHE FREDERIC FRA V1 321 3:48:16 07:22 8.15
942 2800 SALLIER JEROME FRA V2 116 3:48:16 07:22 8.15
943 2799 GUILLOT ERIC FRA V1 322 3:48:16 07:22 8.15
944 3236 DEZEQUE DOMINIQUE FRA V2 117 3:48:39 07:23 8.13
945 2257 DESMET YVES FRA V2 118 3:48:40 07:23 8.13
946 2766 LAMIRAND FREDERIC FRA V2 119 3:48:47 07:23 8.13
947 2421 DEMARQUILLY FRANCOIS FRA V1 323 3:48:57 07:23 8.12
948 2625 LEMAIRE CHARLOTTE FRA SD 64 3:48:58 07:23 8.12
949 3494 KINZIGER DJURDJURA FRA SD 65 3:49:14 07:24 8.11
950 2216 ROSTAN CHRISTELLE FRA A1 51 3:49:17 07:24 8.11
951 3001 DEVIGNE BERTRAND FRA V2 120 3:49:17 07:24 8.11
952 3391 WISNEWSKI PHILIPPE FRA V2 121 3:49:21 07:24 8.11
953 2149 BETHENCOURT DAMIEN FRA SH 359 3:49:22 07:24 8.11
954 3292 LECLERCQ CHRISTOPHE FRA SH 360 3:49:26 07:24 8.11
955 2411 MERCIER WILLIAM FRA SH 361 3:49:30 07:24 8.10
956 2522 CAILLEAUX STEPHANE FRA V1 324 3:49:39 07:24 8.10
957 3463 TARNUS MATHIEU FRA SH 362 3:49:43 07:25 8.10
958 2715 THOMAS LOUIS-CHARLES FRA V2 122 3:49:46 07:25 8.10
959 3291 DHAUSSY BERTRAND FRA V1 325 3:50:00 07:25 8.09
960 2089 DE SAINT SEINE ANTOINE FRA SH 363 3:50:11 07:26 8.08
961 2988 DELVOIE MIKAEL FRA SH 364 3:50:14 07:26 8.08
962 2120 EL ABJANI ABDEL FRA V1 326 3:50:15 07:26 8.08
963 2132 CAILLIAUX MYRIAM FRA A1 52 3:50:16 07:26 8.08
964 2883 THIRY FABIENNE BEL A2 22 3:50:20 07:26 8.08
965 2949 GENICOT PASCAL BEL V2 123 3:50:21 07:26 8.07
966 2249 BARBIER BENJAMIN FRA SH 365 3:50:30 07:26 8.07
967 2202 THERY CHRISTELLE FRA SD 66 3:50:31 07:26 8.07
968 2098 WALTER PIERRE FRA SH 366 3:50:31 07:26 8.07
969 2211 THIEBAULT ELODIE FRA SD 67 3:50:31 07:26 8.07
970 2580 BODDAERT LUCIE FRA SD 68 3:51:02 07:27 8.05
971 3479 VERBRUGGHE VINCENT FRA V1 327 3:51:03 07:27 8.05
972 3477 SAVARY ISABELLE FRA A1 53 3:51:03 07:27 8.05
973 2925 BAILLEUL ALEXIS FRA V1 328 3:51:05 07:27 8.05
974 2555 GUILLIZZONI VALERIE FRA A1 54 3:51:08 07:27 8.05
975 2503 SMAGGHE JOSE FRA V2 124 3:51:14 07:28 8.04
976 3362 CARLIER FLORIAN BEL SH 367 3:51:16 07:28 8.04
977 2220 LECOUSTRE CAROLE FRA A1 55 3:51:31 07:28 8.03
978 3316 LEBON AUDREY FRA SD 69 3:51:32 07:28 8.03
979 2125 MERIAUX LAURENT FRA V2 125 3:51:54 07:29 8.02
980 2395 AUVRAY MARTIN FRA SH 368 3:51:56 07:29 8.02
981 2783 MEURILLON CÉCILE FRA SD 70 3:51:57 07:29 8.02
982 3035 OLIVIER AUDREY FRA SD 71 3:52:06 07:29 8.01
983 3037 DELOZIERE CHRISTOPHE FRA V1 329 3:52:42 07:30 7.99
984 3301 DELACOURT CHRISTOPHE FRA V1 330 3:52:56 07:31 7.99
985 2538 DECHENTINNES CHRISTIAN BEL V3 14 3:53:09 07:31 7.98
986 3448 DUFORT NICOLAS FRA V1 331 3:53:17 07:32 7.97
987 3344 PETIT REMI FRA SH 369 3:53:24 07:32 7.97
988 2554 BARRAS MANUEL FRA V1 332 3:53:38 07:32 7.96
989 2379 DERNONCOURT OLIVIER FRA V3 15 3:53:44 07:32 7.96
990 2265 MOREL FABIAN FRA SH 370 3:53:47 07:32 7.96
991 2148 CHRISTIAENS CLAIRE FRA SD 72 3:53:52 07:33 7.95
992 2665 GRUMIAUX SEVERINE FRA A1 56 3:53:54 07:33 7.95
993 3465 VENTENAT ESTELLE FRA A1 57 3:54:05 07:33 7.95
994 3464 FISCHER LAURENCE FRA A1 58 3:54:05 07:33 7.95
995 3466 VENTENAT VINCENT FRA V1 333 3:54:05 07:33 7.95
996 2874 JICQUEL PAULINE FRA SD 73 3:54:07 07:33 7.94
997 2706 WOODROW DANY FRA A1 59 3:54:14 07:33 7.94
998 2370 VANPEENE FRÉDÉRIQUE FRA SD 74 3:54:14 07:33 7.94
999 3357 DUGAUQUIER CATHERINE BEL SD 75 3:54:16 07:33 7.94
1000 3207 DUMONT ALEXANDRE FRA V1 334 3:54:20 07:34 7.94
1001 2323 BLASSEL MICHEL FRA V2 126 3:54:30 07:34 7.93
1002 2442 EL HARCHI SAID FRA V1 335 3:54:35 07:34 7.93
1003 2550 STYPUIKOWSKI NATHALIE FRA A1 60 3:54:42 07:34 7.93
1004 2987 WINTACQ BENOIT BEL V1 336 3:55:16 07:35 7.91
1005 3416 CONVERT FLORENCE BEL SD 76 3:55:28 07:36 7.90
1006 2289 GLIBERT LAETITIA BEL SD 77 3:56:02 07:37 7.88
1007 3005 PETIT ARNAUD FRA SH 371 3:56:05 07:37 7.88
1008 2623 TOULEMONDE EMMANUEL-LIN FRA SH 372 3:56:09 07:37 7.88
1009 2575 DAYMIER SARAH FRA SD 78 3:56:09 07:37 7.88
1010 2664 GUIOT DANIEL FRA V3 16 3:56:12 07:37 7.87
1011 2542 DELLACHERIE ARNAUD FRA V1 337 3:56:14 07:37 7.87
1012 3373 COLLETTE ARNAUD FRA V1 338 3:56:30 07:38 7.86
1013 3384 DELBART MARION FRA SD 79 3:56:35 07:38 7.86
1014 2581 SAPELIER SARAH-JANE FRA SD 80 3:56:43 07:38 7.86
1015 2866 PÈRE TIMOTHÉE FRA SH 373 3:56:44 07:38 7.86
1016 2729 HAUBRUGE SÉBASTIEN FRA V1 339 3:56:46 07:38 7.86
1017 2728 DESMONT CATHERINE FRA A1 61 3:57:05 07:39 7.85
1018 2130 LANGLET DOUANNES SYLVIE FRA A1 62 3:57:07 07:39 7.84
1019 2824 HUGUENIN SÉVERINE FRA A1 63 3:57:16 07:39 7.84
1020 2298 HESPEL LAURENCE FRA A1 64 3:57:17 07:39 7.84
1021 1238 DUPRE VINCENT FRA V1 340 3:57:24 07:39 7.83
1022 2847 MARTINET MINART MAGALI FRA SD 81 3:57:25 07:40 7.83
1023 2806 LEJOSNE SÉBASTIEN FRA V1 341 3:57:25 07:40 7.83
1024 2599 DESRY ESTELLE FRA A1 65 3:57:33 07:40 7.83
1025 2731 HERCOT NICOLAS BEL SH 374 3:57:34 07:40 7.83
1026 2260 SOLITAIRE GUILLAUME FRA V1 342 3:57:40 07:40 7.83
1027 2111 DUMORTIER CHRISTINE FRA A2 23 3:57:42 07:40 7.82
1028 2133 DERAED JUDITH FRA A1 66 3:57:43 07:40 7.82
1029 2720 LAFONT VIVIANE FRA A2 24 3:58:05 07:41 7.81
1030 2276 DION MARYSE BEL A2 25 3:58:10 07:41 7.81
1031 2121 VÉDRINES NICOLAS FRA V1 343 3:58:42 07:42 7.79
1032 2328 ROELANDTS BERNARD BEL V2 127 3:58:45 07:42 7.79
1033 3032 MATTHYS PASCAL BEL V1 344 3:58:48 07:42 7.79
1034 3070 REYBROECK LAURENCE BEL A1 67 3:58:52 07:42 7.79
1035 3443 FREYBURGER STÉPHANIE FRA A1 68 3:58:53 07:42 7.79
1036 2812 PERRUCHOT ANTOINE FRA V1 345 3:58:56 07:42 7.78
1037 3329 KENTOUR SOUMYA FRA A1 69 3:59:03 07:43 7.78
1038 2652 FACON MARYSE FRA A3 1 3:59:06 07:43 7.78
1039 3442 DALLERY VALÉRIE FRA A2 26 3:59:06 07:43 7.78
1040 2189 GENTIL CELINE FRA SD 82 3:59:07 07:43 7.78
1041 2166 POUCHELLE DAVID FRA V1 346 3:59:07 07:43 7.78
1042 2894 ACCETTONE BRUNO FRA V1 347 3:59:15 07:43 7.77
1043 2667 PERLINSKI GRÉGORY FRA V1 348 3:59:18 07:43 7.77
1044 2004 FODZO ERIC   V1 349 3:59:38 07:44 7.76
1045 3486 HANNON THOMAS FRA SH 375 3:59:41 07:44 7.76
1046 3345 KINDT LOUIS FRA SH 376 3:59:50 07:44 7.76
1047 2489 DELANNOY KARINE FRA SD 83 3:59:52 07:44 7.75
1048 2447 DE COSTER ANNA BEL SD 84 4:00:19 07:45 7.74
1049 2675 CARPENTIER SANDRINE BEL SD 85 4:00:32 07:46 7.73
1050 2826 NOEL FRANCE BEL A1 70 4:00:32 07:46 7.73
1051 2607 VERGOTE CÉLINE BEL SD 86 4:00:32 07:46 7.73
1052 3336 RIBAUVILLE NATHALIE BEL A1 71 4:00:32 07:46 7.73
1053 2786 PLESKA OLIVIER BEL V2 128 4:00:38 07:46 7.73
1054 3238 LEFEBVRE ERIC FRA V1 350 4:00:51 07:46 7.72
1055 1224 CAZIER CEDRIC FRA V1 351 4:00:52 07:46 7.72
1056 1225 FAUCOUNEAU JEAN FRANCOIS FRA V1 352 4:00:52 07:46 7.72
1057 2460 DE BEUGHER CHANTAL BEL A2 27 4:00:56 07:46 7.72
1058 3420 LIGNY CAROLINE BEL A2 28 4:00:56 07:46 7.72
1059 2468 VERPLAETSE JOHANNA FRA A1 72 4:00:56 07:46 7.72
1060 1203 BOUGRAIN ISABELLE FRA SD 87 4:01:10 07:47 7.71
1061 2681 THONNARD MICHAEL BEL V1 353 4:01:21 07:47 7.71
1062 3320 VANSTEENBRUGGE DOMINIQUE BEL A1 73 4:01:23 07:47 7.71
1063 2586 LE ROY JULIEN FRA SH 377 4:01:30 07:47 7.70
1064 2617 MASSEMIN TEDDY FRA SH 378 4:01:31 07:47 7.70
1065 2872 GENEVIEVE COOLMAN BEL A1 74 4:01:33 07:48 7.70
1066 2875 STEPHANOS KONSTANTINIDIS BEL SH 379 4:01:33 07:48 7.70
1067 3355 VERMEULEN DAMIEN FRA SH 380 4:01:34 07:48 7.70
1068 2942 LIBERT SABINE BEL A1 75 4:01:35 07:48 7.70
1069 2352 COTTIGNY MAXIME FRA SH 381 4:01:41 07:48 7.70
1070 3294 METZEN THIERRY FRA V2 129 4:01:47 07:48 7.69
1071 3343 SPAGNUOLO ANGELO BEL V2 130 4:02:00 07:48 7.69
1072 2963 FLINOIS HELENE FRA A1 76 4:02:02 07:48 7.68
1073 2964 FLINOIS DIDIER FRA V1 354 4:02:02 07:48 7.68
1074 3388 WAYMEL BÉNÉDICTE FRA A2 29 4:02:02 07:48 7.68
1075 3007 CAPELLE JACK FRA SH 382 4:02:10 07:49 7.68
1076 3187 LESNE DAVID FRA V1 355 4:02:14 07:49 7.68
1077 2838 GIORGIANNI LAURENCE FRA A2 30 4:02:23 07:49 7.67
1078 2080 LEDEZ SANDRINE FRA A2 31 4:02:35 07:50 7.67
1079 2432 DE BLEECKER MURIEL BEL A1 77 4:02:44 07:50 7.66
1080 2356 ALVAREZ BLANCO MANUEL BEL V2 131 4:02:47 07:50 7.66
1081 2565 PATOUT SIMON BEL SH 383 4:02:50 07:50 7.66
1082 3246 JAILLOUX FREDERIC FRA V1 356 4:02:54 07:50 7.66
1083 2270 WILLOT ANNE BEL A2 32 4:02:59 07:50 7.65
1084 3470 MAISIERES VIVIANE FRA A1 78 4:03:14 07:51 7.65
1085 2709 LAMOTTE SEVERINE FRA A1 79 4:03:16 07:51 7.65
1086 2363 GEVENOIS MARIE-ROSE BEL A3 2 4:03:59 07:52 7.62
1087 3036 MERTENS ANNE BEL A3 3 4:04:03 07:52 7.62
1088 2177 HERBET DIDIER FRA V1 357 4:04:19 07:53 7.61
1089 2914 CANU BRIGITTE FRA A3 4 4:04:48 07:54 7.60
1090 2714 KEIJSERS GEOFFREY BEL SH 384 4:04:52 07:54 7.60
1091 2597 FADISTA RAFAEL BEL V1 358 4:04:53 07:54 7.60
1092 3346 VANCRAEYNEST EMILIEN FRA SH 385 4:04:56 07:54 7.59
1093 3227 BELLENGER WANDRILLE FRA SH 386 4:05:01 07:54 7.59
1094 2614 DUJARDIN DAVID FRA V2 132 4:05:18 07:55 7.58
1095 2895 DUJARDIN GAUTHIER FRA V1 359 4:05:18 07:55 7.58
1096 2187 VANHEES JEAN-LOUIS BEL V3 17 4:05:33 07:55 7.57
1097 3441 BOUCHARD CATHY FRA A1 80 4:05:36 07:55 7.57
1098 3360 PERETTE GWENAËLLE FRA A1 81 4:05:36 07:55 7.57
1099 1035 RAMERY ALBERT FRA V2 133 4:07:05 07:58 7.53
1100 3498 DRUELLE JULIE FRA SD 88 4:07:17 07:59 7.52
1101 2501 WRONA VIRGINIE FRA A1 82 4:07:18 07:59 7.52
1102 2926 LECOMTE MARIE-HÉLÈNE BEL A1 83 4:07:20 07:59 7.52
1103 2226 LORTHOIS QUENTIN FRA SH 387 4:07:35 07:59 7.51
1104 2924 CADART AURELIE FRA SD 89 4:08:27 08:01 7.49
1105 2952 VIOT PHILIPPE FRA V1 360 4:09:33 08:03 7.45
1106 2331 DEFROMONT JEAN-LUC FRA V3 18 4:09:39 08:03 7.45
1107 2005 DÉGREMONT CLAIRE   SD 90 4:09:49 08:04 7.45
1108 2048 VINCON MATTIEU FRA SH 388 4:10:15 08:04 7.43
1109 3311 BEGARD ALEXANDRE FRA V1 361 4:10:35 08:05 7.42
1110 2556 ROUSSEL PHILIPPE FRA V3 19 4:10:49 08:05 7.42
1111 2374 RAUWEL LUC FRA V1 362 4:11:11 08:06 7.40
1112 3371 BOYAVAL BENOIT FRA SH 389 4:11:51 08:07 7.39
1113 2294 BOYAVAL ARNAUD FRA SH 390 4:11:51 08:07 7.39
1114 2300 VANDERVEKEN ERIC FRA V2 134 4:12:00 08:08 7.38
1115 2888 STETSENKO CECILE FRA A2 33 4:12:32 08:09 7.37
1116 3199 BURGGRAEVE ANTHONY FRA SH 391 4:12:38 08:09 7.36
1117 3300 ABELS BERTRAND BEL V1 363 4:12:38 08:09 7.36
1118 2598 DESRY DIDIER FRA V3 20 4:14:56 08:13 7.30
1119 2009 CAMUS FABRICE   V1 364 4:15:00 08:14 7.29
1120 3024 LE FUR ANNE-VALÉRIE FRA A1 84 4:15:08 08:14 7.29
1121 2469 MALIKIAN MARIE BEL A1 85 4:15:11 08:14 7.29
1122 3421 VAN WYMERSCH SABINE FRA A2 34 4:15:17 08:14 7.29
1123 3366 MARCOURT BENJAMIN FRA SH 392 4:15:18 08:14 7.29
1124 2525 DROMBRY JULIEN FRA SH 393 4:15:56 08:15 7.27
1125 2524 VERQUIN DELPHINE FRA SD 91 4:16:03 08:16 7.26
1126 2400 GIESE CHRISTOPHE FRA V1 365 4:16:30 08:16 7.25
1127 2399 MESSEYNE GREGORY FRA SH 394 4:16:30 08:16 7.25
1128 3374 COLLETTE OLIVIER FRA V2 135 4:16:35 08:17 7.25
1129 3305 BYKTA FATIMA BEL SD 92 4:17:23 08:18 7.23
1130 2034 VILLETTE CAROLINE FRA A1 86 4:17:29 08:18 7.22
1131 2035 HOUZE FABRICE FRA V1 366 4:17:29 08:18 7.22
1132 2278 VASSEUR GAUTHIER FRA SH 395 4:17:31 08:18 7.22
1133 2917 BALESTAN PATRICK FRA V2 136 4:17:37 08:19 7.22
1134 2312 JACQUEMART FRANÇOISE FRA A2 35 4:17:42 08:19 7.22
1135 2313 JACQUEMART THIERRY FRA V2 137 4:17:43 08:19 7.22
1136 2980 LAMBELIN JEAN-GÉRARD FRA V3 21 4:17:58 08:19 7.21
1137 2495 HARS KARINE FRA A1 87 4:18:35 08:20 7.19
1138 3186 VANDEPUTTE FRANÇOIS FRA SH 396 4:18:52 08:21 7.19
1139 2441 FELLAH HOUDA FRA A1 88 4:19:46 08:23 7.16
1140 3026 GAVRAY ERIC BEL V2 138 4:21:14 08:26 7.12
1141 2891 COURTI MICHÈLE FRA A2 36 4:22:16 08:28 7.09
1142 2190 BULTEEL DOMINIQUE FRA A2 37 4:22:16 08:28 7.09
1143 2404 ADAMIS TELLY FRA V1 367 4:22:34 08:28 7.08
1144 1124 RINGOT FRANCK FRA V2 139 4:23:54 08:31 7.05
1145 2546 RINGOT XAVIER FRA V2 140 4:23:55 08:31 7.05
1146 2932 LEVREL JEAN-PHILIPPE FRA V1 368 4:23:55 08:31 7.05
1147 2788 RINGOT ISABELLE FRA A2 38 4:23:55 08:31 7.05
1148 3342 NISON PHILIPPE FRA SH 397 4:24:08 08:31 7.04
1149 3283 LAMIRAND MANON FRA SD 93 4:24:28 08:32 7.03
1150 2306 HECQUET PIERRE FRA V2 141 4:26:48 08:36 6.97
1151 3019 COUROUBLE OLIVIER FRA SH 398 4:27:02 08:37 6.97
1152 2822 GAMBLIN MICHAEL FRA V1 369 4:28:14 08:39 6.93
1153 2218 JOSSIEN JULIE FRA SD 94 4:28:16 08:39 6.93
1154 2951 MOTTART FLORENCE BEL A1 89 4:28:37 08:40 6.92
1155 2846 MINART MICK FRA V1 370 4:29:42 08:42 6.90
1156 2905 RIDOUX BRUNO FRA V1 371 4:33:36 08:50 6.80
1157 3229 DUCROCQ PASCALE FRA A1 90 4:34:07 08:51 6.79
1158 3228 DUCROCQ THIERRY FRA V1 372 4:34:07 08:51 6.79
1159 2804 VAN-DAËLEN JÉRÉMY FRA SH 399 4:35:25 08:53 6.75
1160 2955 TOULEMONDE ARNAULD FRA V2 142 4:37:00 08:56 6.71
1161 2620 DEHAUDT FRANCK FRA SH 400 4:37:14 08:57 6.71
1162 2386 FROUMENTIN JEAN-LOUIS FRA V2 143 4:38:28 08:59 6.68
1163 3269 RODRIGUES LUDOVIC FRA V1 373 4:39:12 09:00 6.66
1164 3356 PARANT JEAN FREDERIC FRA V1 374 4:39:12 09:00 6.66
1165 2594 MANS QUENTIN FRA SH 401 4:39:59 09:02 6.64
1166 2981 CHOQUEZ ERIC FRA V1 375 4:40:23 09:03 6.63
1167 3232 HALLEUX NATHALIE BEL SD 95 4:41:57 09:06 6.60
1168 2438 COLLIN DENIS BEL SH 402 4:45:34 09:13 6.51
1169 3361 SULEJ ALAIN BEL V1 376 4:45:44 09:13 6.51
1170 1611 VINCENT NICOLAS FRA SH 403 4:45:45 09:13 6.51
1171 2358 MAJA QUENTIN BEL SH 404 4:46:38 09:15 6.49
1172 2971 EVRARD FRANCOISE FRA A2 39 4:48:25 09:18 6.45
1173 2707 STERCKEMAN DELPHINE FRA A1 91 4:50:26 09:22 6.40
1174 2357 DE ROECK MONIQUE BEL A2 40 4:50:44 09:23 6.40
1175 2860 LABALETTE LAETITIA FRA A1 92 4:52:25 09:26 6.36
1176 2859 LEPINE SOPHIE FRA SD 96 4:52:25 09:26 6.36
1177 2090 CHAMILLARD BERTRAND FRA SH 405 4:55:36 09:32 6.29
1178 3285 PITRE KÉVIN FRA SH 406 4:59:11 09:39 6.22
1179 2805 TYTECA PHILIPPE FRA V1 377 4:59:23 09:39 6.21
1180 2803 CARON LAETITIA FRA SD 97 4:59:24 09:39 6.21
1181 2947 CARLU SÉVERINE FRA A1 93 4:59:24 09:39 6.21
1182 3225 LEBOUCQ LAURA FRA SD 98 4:59:24 09:39 6.21
1183 2596 DIDIO CINTHYA FRA SD 99 4:59:24 09:39 6.21
1184 2832 MARKI ISABELLE BEL A1 94 5:25:19 10:30 5.72
1185 2702 CENZANO VANESSA ESP SD 100 5:36:06 10:51 5.53